<?xml version="1.0" encoding="UTF-8" standalone="yes"?>
<gpx
 xmlns="http://www.topografix.com/GPX/1/1"
 creator="OziExplorer Version 3956f - http://www.oziexplorer.com"
 version="1.1"
 xmlns:xsi="http://www.w3.org/2001/XMLSchema-instance"
 xsi:schemaLocation="http://www.topografix.com/GPX/1/1 http://www.topografix.com/GPX/1/1/gpx.xsd">
<metadata>
 <time>2021-10-27T14:38:01Z</time>
 <bounds minlat="31.710930" minlon="35.003960" maxlat="31.750340" maxlon="35.096630"/>
</metadata>
<trk>
 <name>Zanoah-Dolev-BarBahar,30km.,760m</name>
 <desc>Zanoah-Dolev-BarBahar,30km.,760m</desc>
<trkseg>
<trkpt lat="31.7318000" lon="35.0045000">
<ele>263.299988</ele>
<time>2021-10-27T17:38:01.277Z</time>
</trkpt>
<trkpt lat="31.7317800" lon="35.0045100">
<ele>263.149994</ele>
<time>2021-10-27T17:38:01.277Z</time>
</trkpt>
<trkpt lat="31.7317600" lon="35.0046500">
<ele>261.290009</ele>
<time>2021-10-27T17:38:01.277Z</time>
</trkpt>
<trkpt lat="31.7317500" lon="35.0048100">
<ele>259.160004</ele>
<time>2021-10-27T17:38:01.277Z</time>
</trkpt>
<trkpt lat="31.7317500" lon="35.0048100">
<ele>259.160004</ele>
<time>2021-10-27T17:38:01.277Z</time>
</trkpt>
<trkpt lat="31.7317500" lon="35.0048100">
<ele>259.160004</ele>
<time>2021-10-27T17:38:01.277Z</time>
</trkpt>
<trkpt lat="31.7317800" lon="35.0044900">
<ele>263.410004</ele>
<time>2021-10-27T17:38:01.277Z</time>
</trkpt>
<trkpt lat="31.7318200" lon="35.0047300">
<ele>260.440002</ele>
<time>2021-10-27T17:38:01.277Z</time>
</trkpt>
<trkpt lat="31.7318100" lon="35.0052200">
<ele>257.250000</ele>
<time>2021-10-27T17:38:01.277Z</time>
</trkpt>
<trkpt lat="31.7317700" lon="35.0052400">
<ele>257.709991</ele>
<time>2021-10-27T17:38:01.277Z</time>
</trkpt>
<trkpt lat="31.7317300" lon="35.0052600">
<ele>258.220001</ele>
<time>2021-10-27T17:38:01.277Z</time>
</trkpt>
<trkpt lat="31.7317100" lon="35.0053000">
<ele>258.080017</ele>
<time>2021-10-27T17:38:01.277Z</time>
</trkpt>
<trkpt lat="31.7316900" lon="35.0053400">
<ele>257.350006</ele>
<time>2021-10-27T17:38:01.277Z</time>
</trkpt>
<trkpt lat="31.7316900" lon="35.0053800">
<ele>256.450012</ele>
<time>2021-10-27T17:38:01.278Z</time>
</trkpt>
<trkpt lat="31.7317000" lon="35.0054200">
<ele>255.610001</ele>
<time>2021-10-27T17:38:01.278Z</time>
</trkpt>
<trkpt lat="31.7317100" lon="35.0054500">
<ele>255.059998</ele>
<time>2021-10-27T17:38:01.278Z</time>
</trkpt>
<trkpt lat="31.7317400" lon="35.0054900">
<ele>254.680008</ele>
<time>2021-10-27T17:38:01.278Z</time>
</trkpt>
<trkpt lat="31.7317700" lon="35.0055100">
<ele>254.830002</ele>
<time>2021-10-27T17:38:01.278Z</time>
</trkpt>
<trkpt lat="31.7318100" lon="35.0055300">
<ele>255.309998</ele>
<time>2021-10-27T17:38:01.278Z</time>
</trkpt>
<trkpt lat="31.7318400" lon="35.0055200">
<ele>255.920013</ele>
<time>2021-10-27T17:38:01.278Z</time>
</trkpt>
<trkpt lat="31.7318200" lon="35.0056800">
<ele>255.850006</ele>
<time>2021-10-27T17:38:01.278Z</time>
</trkpt>
<trkpt lat="31.7317700" lon="35.0058000">
<ele>254.659988</ele>
<time>2021-10-27T17:38:01.278Z</time>
</trkpt>
<trkpt lat="31.7316900" lon="35.0058700">
<ele>252.799988</ele>
<time>2021-10-27T17:38:01.278Z</time>
</trkpt>
<trkpt lat="31.7316600" lon="35.0058800">
<ele>252.219986</ele>
<time>2021-10-27T17:38:01.278Z</time>
</trkpt>
<trkpt lat="31.7315900" lon="35.0059200">
<ele>252.029999</ele>
<time>2021-10-27T17:38:01.278Z</time>
</trkpt>
<trkpt lat="31.7314600" lon="35.0058900">
<ele>248.759995</ele>
<time>2021-10-27T17:38:01.278Z</time>
</trkpt>
<trkpt lat="31.7313700" lon="35.0058800">
<ele>247.129990</ele>
<time>2021-10-27T17:38:01.278Z</time>
</trkpt>
<trkpt lat="31.7312500" lon="35.0058800">
<ele>246.839996</ele>
<time>2021-10-27T17:38:01.278Z</time>
</trkpt>
<trkpt lat="31.7310300" lon="35.0059200">
<ele>248.519989</ele>
<time>2021-10-27T17:38:01.278Z</time>
</trkpt>
<trkpt lat="31.7308800" lon="35.0059600">
<ele>250.539993</ele>
<time>2021-10-27T17:38:01.278Z</time>
</trkpt>
<trkpt lat="31.7306400" lon="35.0060200">
<ele>255.190002</ele>
<time>2021-10-27T17:38:01.278Z</time>
</trkpt>
<trkpt lat="31.7305000" lon="35.0060600">
<ele>256.750000</ele>
<time>2021-10-27T17:38:01.278Z</time>
</trkpt>
<trkpt lat="31.7303900" lon="35.0060900">
<ele>254.000000</ele>
<time>2021-10-27T17:38:01.278Z</time>
</trkpt>
<trkpt lat="31.7302900" lon="35.0061000">
<ele>250.650009</ele>
<time>2021-10-27T17:38:01.278Z</time>
</trkpt>
<trkpt lat="31.7301100" lon="35.0061200">
<ele>253.099991</ele>
<time>2021-10-27T17:38:01.278Z</time>
</trkpt>
<trkpt lat="31.7298500" lon="35.0061500">
<ele>254.750000</ele>
<time>2021-10-27T17:38:01.278Z</time>
</trkpt>
<trkpt lat="31.7297000" lon="35.0061700">
<ele>254.750000</ele>
<time>2021-10-27T17:38:01.278Z</time>
</trkpt>
<trkpt lat="31.7296300" lon="35.0061800">
<ele>255.160004</ele>
<time>2021-10-27T17:38:01.278Z</time>
</trkpt>
<trkpt lat="31.7294800" lon="35.0062100">
<ele>255.880005</ele>
<time>2021-10-27T17:38:01.278Z</time>
</trkpt>
<trkpt lat="31.7293500" lon="35.0062300">
<ele>255.949997</ele>
<time>2021-10-27T17:38:01.278Z</time>
</trkpt>
<trkpt lat="31.7291200" lon="35.0062800">
<ele>257.029999</ele>
<time>2021-10-27T17:38:01.278Z</time>
</trkpt>
<trkpt lat="31.7289000" lon="35.0063300">
<ele>261.730011</ele>
<time>2021-10-27T17:38:01.278Z</time>
</trkpt>
<trkpt lat="31.7288100" lon="35.0063500">
<ele>262.020020</ele>
<time>2021-10-27T17:38:01.278Z</time>
</trkpt>
<trkpt lat="31.7287200" lon="35.0064000">
<ele>262.709991</ele>
<time>2021-10-27T17:38:01.278Z</time>
</trkpt>
<trkpt lat="31.7285600" lon="35.0065000">
<ele>263.880005</ele>
<time>2021-10-27T17:38:01.278Z</time>
</trkpt>
<trkpt lat="31.7284700" lon="35.0065700">
<ele>264.229980</ele>
<time>2021-10-27T17:38:01.278Z</time>
</trkpt>
<trkpt lat="31.7283700" lon="35.0066400">
<ele>264.119995</ele>
<time>2021-10-27T17:38:01.278Z</time>
</trkpt>
<trkpt lat="31.7282800" lon="35.0066900">
<ele>264.480011</ele>
<time>2021-10-27T17:38:01.278Z</time>
</trkpt>
<trkpt lat="31.7282400" lon="35.0067100">
<ele>264.809998</ele>
<time>2021-10-27T17:38:01.278Z</time>
</trkpt>
<trkpt lat="31.7282400" lon="35.0067100">
<ele>264.809998</ele>
<time>2021-10-27T17:38:01.279Z</time>
</trkpt>
<trkpt lat="31.7281900" lon="35.0067300">
<ele>264.950012</ele>
<time>2021-10-27T17:38:01.279Z</time>
</trkpt>
<trkpt lat="31.7281000" lon="35.0067500">
<ele>264.600006</ele>
<time>2021-10-27T17:38:01.279Z</time>
</trkpt>
<trkpt lat="31.7279700" lon="35.0068000">
<ele>266.339996</ele>
<time>2021-10-27T17:38:01.279Z</time>
</trkpt>
<trkpt lat="31.7278500" lon="35.0068500">
<ele>268.380005</ele>
<time>2021-10-27T17:38:01.279Z</time>
</trkpt>
<trkpt lat="31.7277600" lon="35.0068800">
<ele>269.230011</ele>
<time>2021-10-27T17:38:01.279Z</time>
</trkpt>
<trkpt lat="31.7276600" lon="35.0069200">
<ele>269.089996</ele>
<time>2021-10-27T17:38:01.279Z</time>
</trkpt>
<trkpt lat="31.7275600" lon="35.0069600">
<ele>268.869995</ele>
<time>2021-10-27T17:38:01.279Z</time>
</trkpt>
<trkpt lat="31.7274700" lon="35.0069900">
<ele>268.919983</ele>
<time>2021-10-27T17:38:01.279Z</time>
</trkpt>
<trkpt lat="31.7273500" lon="35.0070000">
<ele>270.559998</ele>
<time>2021-10-27T17:38:01.279Z</time>
</trkpt>
<trkpt lat="31.7272800" lon="35.0069900">
<ele>271.529999</ele>
<time>2021-10-27T17:38:01.279Z</time>
</trkpt>
<trkpt lat="31.7270700" lon="35.0069900">
<ele>272.700012</ele>
<time>2021-10-27T17:38:01.279Z</time>
</trkpt>
<trkpt lat="31.7268200" lon="35.0071400">
<ele>273.450012</ele>
<time>2021-10-27T17:38:01.279Z</time>
</trkpt>
<trkpt lat="31.7268200" lon="35.0071400">
<ele>273.450012</ele>
<time>2021-10-27T17:38:01.279Z</time>
</trkpt>
<trkpt lat="31.7268200" lon="35.0071400">
<ele>273.450012</ele>
<time>2021-10-27T17:38:01.279Z</time>
</trkpt>
<trkpt lat="31.7268200" lon="35.0071400">
<ele>273.450012</ele>
<time>2021-10-27T17:38:01.279Z</time>
</trkpt>
<trkpt lat="31.7266700" lon="35.0072300">
<ele>274.019989</ele>
<time>2021-10-27T17:38:01.279Z</time>
</trkpt>
<trkpt lat="31.7260000" lon="35.0076900">
<ele>271.649994</ele>
<time>2021-10-27T17:38:01.279Z</time>
</trkpt>
<trkpt lat="31.7256600" lon="35.0080200">
<ele>274.990021</ele>
<time>2021-10-27T17:38:01.279Z</time>
</trkpt>
<trkpt lat="31.7254600" lon="35.0082100">
<ele>275.179993</ele>
<time>2021-10-27T17:38:01.279Z</time>
</trkpt>
<trkpt lat="31.7250300" lon="35.0086500">
<ele>277.760010</ele>
<time>2021-10-27T17:38:01.279Z</time>
</trkpt>
<trkpt lat="31.7249900" lon="35.0087900">
<ele>278.829987</ele>
<time>2021-10-27T17:38:01.279Z</time>
</trkpt>
<trkpt lat="31.7249800" lon="35.0089900">
<ele>280.020020</ele>
<time>2021-10-27T17:38:01.279Z</time>
</trkpt>
<trkpt lat="31.7249200" lon="35.0093000">
<ele>282.010010</ele>
<time>2021-10-27T17:38:01.279Z</time>
</trkpt>
<trkpt lat="31.7246800" lon="35.0093200">
<ele>277.739990</ele>
<time>2021-10-27T17:38:01.279Z</time>
</trkpt>
<trkpt lat="31.7243800" lon="35.0098200">
<ele>283.040009</ele>
<time>2021-10-27T17:38:01.279Z</time>
</trkpt>
<trkpt lat="31.7241200" lon="35.0099500">
<ele>283.250000</ele>
<time>2021-10-27T17:38:01.279Z</time>
</trkpt>
<trkpt lat="31.7240400" lon="35.0099300">
<ele>283.570007</ele>
<time>2021-10-27T17:38:01.280Z</time>
</trkpt>
<trkpt lat="31.7240400" lon="35.0099300">
<ele>283.570007</ele>
<time>2021-10-27T17:38:01.280Z</time>
</trkpt>
<trkpt lat="31.7236200" lon="35.0097900">
<ele>286.339996</ele>
<time>2021-10-27T17:38:01.280Z</time>
</trkpt>
<trkpt lat="31.7228800" lon="35.0098300">
<ele>279.940002</ele>
<time>2021-10-27T17:38:01.280Z</time>
</trkpt>
<trkpt lat="31.7228800" lon="35.0098200">
<ele>279.880005</ele>
<time>2021-10-27T17:38:01.280Z</time>
</trkpt>
<trkpt lat="31.7228800" lon="35.0098200">
<ele>279.880005</ele>
<time>2021-10-27T17:38:01.280Z</time>
</trkpt>
<trkpt lat="31.7227900" lon="35.0098200">
<ele>280.290009</ele>
<time>2021-10-27T17:38:01.280Z</time>
</trkpt>
<trkpt lat="31.7222300" lon="35.0098200">
<ele>292.880005</ele>
<time>2021-10-27T17:38:01.280Z</time>
</trkpt>
<trkpt lat="31.7211600" lon="35.0094000">
<ele>288.649994</ele>
<time>2021-10-27T17:38:01.280Z</time>
</trkpt>
<trkpt lat="31.7201600" lon="35.0091400">
<ele>287.020020</ele>
<time>2021-10-27T17:38:01.280Z</time>
</trkpt>
<trkpt lat="31.7194100" lon="35.0093000">
<ele>293.029999</ele>
<time>2021-10-27T17:38:01.280Z</time>
</trkpt>
<trkpt lat="31.7184400" lon="35.0095600">
<ele>290.319977</ele>
<time>2021-10-27T17:38:01.280Z</time>
</trkpt>
<trkpt lat="31.7180000" lon="35.0095400">
<ele>294.700012</ele>
<time>2021-10-27T17:38:01.280Z</time>
</trkpt>
<trkpt lat="31.7179400" lon="35.0096000">
<ele>295.559998</ele>
<time>2021-10-27T17:38:01.280Z</time>
</trkpt>
<trkpt lat="31.7176800" lon="35.0097300">
<ele>296.769989</ele>
<time>2021-10-27T17:38:01.280Z</time>
</trkpt>
<trkpt lat="31.7170700" lon="35.0101800">
<ele>301.000000</ele>
<time>2021-10-27T17:38:01.280Z</time>
</trkpt>
<trkpt lat="31.7168500" lon="35.0101500">
<ele>302.199982</ele>
<time>2021-10-27T17:38:01.280Z</time>
</trkpt>
<trkpt lat="31.7168500" lon="35.0100100">
<ele>302.029999</ele>
<time>2021-10-27T17:38:01.280Z</time>
</trkpt>
<trkpt lat="31.7171700" lon="35.0089900">
<ele>294.309998</ele>
<time>2021-10-27T17:38:01.280Z</time>
</trkpt>
<trkpt lat="31.7168900" lon="35.0086500">
<ele>296.079987</ele>
<time>2021-10-27T17:38:01.280Z</time>
</trkpt>
<trkpt lat="31.7166100" lon="35.0084900">
<ele>297.010010</ele>
<time>2021-10-27T17:38:01.280Z</time>
</trkpt>
<trkpt lat="31.7164600" lon="35.0084500">
<ele>298.929993</ele>
<time>2021-10-27T17:38:01.280Z</time>
</trkpt>
<trkpt lat="31.7155700" lon="35.0082900">
<ele>306.730011</ele>
<time>2021-10-27T17:38:01.280Z</time>
</trkpt>
<trkpt lat="31.7150500" lon="35.0080000">
<ele>315.470001</ele>
<time>2021-10-27T17:38:01.280Z</time>
</trkpt>
<trkpt lat="31.7143400" lon="35.0078800">
<ele>315.380005</ele>
<time>2021-10-27T17:38:01.280Z</time>
</trkpt>
<trkpt lat="31.7140100" lon="35.0076700">
<ele>311.579987</ele>
<time>2021-10-27T17:38:01.280Z</time>
</trkpt>
<trkpt lat="31.7138300" lon="35.0076300">
<ele>309.079987</ele>
<time>2021-10-27T17:38:01.281Z</time>
</trkpt>
<trkpt lat="31.7138100" lon="35.0076300">
<ele>308.609985</ele>
<time>2021-10-27T17:38:01.281Z</time>
</trkpt>
<trkpt lat="31.7136300" lon="35.0076700">
<ele>304.660004</ele>
<time>2021-10-27T17:38:01.281Z</time>
</trkpt>
<trkpt lat="31.7131100" lon="35.0081000">
<ele>310.470001</ele>
<time>2021-10-27T17:38:01.281Z</time>
</trkpt>
<trkpt lat="31.7130400" lon="35.0084700">
<ele>311.109985</ele>
<time>2021-10-27T17:38:01.281Z</time>
</trkpt>
<trkpt lat="31.7127700" lon="35.0088600">
<ele>315.119995</ele>
<time>2021-10-27T17:38:01.281Z</time>
</trkpt>
<trkpt lat="31.7122500" lon="35.0092700">
<ele>321.739990</ele>
<time>2021-10-27T17:38:01.281Z</time>
</trkpt>
<trkpt lat="31.7121500" lon="35.0093200">
<ele>321.029999</ele>
<time>2021-10-27T17:38:01.281Z</time>
</trkpt>
<trkpt lat="31.7113400" lon="35.0097700">
<ele>318.560028</ele>
<time>2021-10-27T17:38:01.281Z</time>
</trkpt>
<trkpt lat="31.7110600" lon="35.0100800">
<ele>318.819977</ele>
<time>2021-10-27T17:38:01.281Z</time>
</trkpt>
<trkpt lat="31.7109500" lon="35.0106100">
<ele>323.170013</ele>
<time>2021-10-27T17:38:01.281Z</time>
</trkpt>
<trkpt lat="31.7110000" lon="35.0110500">
<ele>328.669983</ele>
<time>2021-10-27T17:38:01.281Z</time>
</trkpt>
<trkpt lat="31.7111200" lon="35.0115200">
<ele>332.080017</ele>
<time>2021-10-27T17:38:01.281Z</time>
</trkpt>
<trkpt lat="31.7114400" lon="35.0122400">
<ele>338.540009</ele>
<time>2021-10-27T17:38:01.281Z</time>
</trkpt>
<trkpt lat="31.7122500" lon="35.0135100">
<ele>344.429993</ele>
<time>2021-10-27T17:38:01.281Z</time>
</trkpt>
<trkpt lat="31.7122700" lon="35.0138300">
<ele>343.550018</ele>
<time>2021-10-27T17:38:01.281Z</time>
</trkpt>
<trkpt lat="31.7121400" lon="35.0141200">
<ele>342.140015</ele>
<time>2021-10-27T17:38:01.281Z</time>
</trkpt>
<trkpt lat="31.7124600" lon="35.0153100">
<ele>339.179993</ele>
<time>2021-10-27T17:38:01.281Z</time>
</trkpt>
<trkpt lat="31.7125400" lon="35.0157600">
<ele>342.510010</ele>
<time>2021-10-27T17:38:01.281Z</time>
</trkpt>
<trkpt lat="31.7127400" lon="35.0164300">
<ele>350.100006</ele>
<time>2021-10-27T17:38:01.281Z</time>
</trkpt>
<trkpt lat="31.7127400" lon="35.0164800">
<ele>350.389984</ele>
<time>2021-10-27T17:38:01.281Z</time>
</trkpt>
<trkpt lat="31.7127000" lon="35.0168200">
<ele>352.320007</ele>
<time>2021-10-27T17:38:01.281Z</time>
</trkpt>
<trkpt lat="31.7124100" lon="35.0171800">
<ele>350.459991</ele>
<time>2021-10-27T17:38:01.281Z</time>
</trkpt>
<trkpt lat="31.7117900" lon="35.0177500">
<ele>356.690002</ele>
<time>2021-10-27T17:38:01.281Z</time>
</trkpt>
<trkpt lat="31.7115600" lon="35.0181300">
<ele>360.009979</ele>
<time>2021-10-27T17:38:01.281Z</time>
</trkpt>
<trkpt lat="31.7113400" lon="35.0183100">
<ele>363.139984</ele>
<time>2021-10-27T17:38:01.282Z</time>
</trkpt>
<trkpt lat="31.7113200" lon="35.0185300">
<ele>363.779999</ele>
<time>2021-10-27T17:38:01.282Z</time>
</trkpt>
<trkpt lat="31.7113400" lon="35.0188700">
<ele>365.099976</ele>
<time>2021-10-27T17:38:01.282Z</time>
</trkpt>
<trkpt lat="31.7113900" lon="35.0189600">
<ele>364.490021</ele>
<time>2021-10-27T17:38:01.282Z</time>
</trkpt>
<trkpt lat="31.7115000" lon="35.0191000">
<ele>363.880005</ele>
<time>2021-10-27T17:38:01.282Z</time>
</trkpt>
<trkpt lat="31.7117000" lon="35.0195200">
<ele>364.040009</ele>
<time>2021-10-27T17:38:01.282Z</time>
</trkpt>
<trkpt lat="31.7117400" lon="35.0196200">
<ele>366.240021</ele>
<time>2021-10-27T17:38:01.282Z</time>
</trkpt>
<trkpt lat="31.7118200" lon="35.0200000">
<ele>370.549988</ele>
<time>2021-10-27T17:38:01.282Z</time>
</trkpt>
<trkpt lat="31.7119000" lon="35.0202700">
<ele>371.770020</ele>
<time>2021-10-27T17:38:01.282Z</time>
</trkpt>
<trkpt lat="31.7120400" lon="35.0207000">
<ele>372.859985</ele>
<time>2021-10-27T17:38:01.282Z</time>
</trkpt>
<trkpt lat="31.7120800" lon="35.0208800">
<ele>371.940002</ele>
<time>2021-10-27T17:38:01.282Z</time>
</trkpt>
<trkpt lat="31.7120900" lon="35.0209700">
<ele>371.119995</ele>
<time>2021-10-27T17:38:01.283Z</time>
</trkpt>
<trkpt lat="31.7120800" lon="35.0210800">
<ele>369.800018</ele>
<time>2021-10-27T17:38:01.283Z</time>
</trkpt>
<trkpt lat="31.7120700" lon="35.0212400">
<ele>368.589996</ele>
<time>2021-10-27T17:38:01.283Z</time>
</trkpt>
<trkpt lat="31.7120000" lon="35.0214000">
<ele>366.380005</ele>
<time>2021-10-27T17:38:01.283Z</time>
</trkpt>
<trkpt lat="31.7119500" lon="35.0214800">
<ele>366.450012</ele>
<time>2021-10-27T17:38:01.283Z</time>
</trkpt>
<trkpt lat="31.7116200" lon="35.0218200">
<ele>368.619995</ele>
<time>2021-10-27T17:38:01.283Z</time>
</trkpt>
<trkpt lat="31.7113400" lon="35.0220000">
<ele>370.919983</ele>
<time>2021-10-27T17:38:01.283Z</time>
</trkpt>
<trkpt lat="31.7111900" lon="35.0221100">
<ele>373.149994</ele>
<time>2021-10-27T17:38:01.283Z</time>
</trkpt>
<trkpt lat="31.7111100" lon="35.0222100">
<ele>372.220001</ele>
<time>2021-10-27T17:38:01.283Z</time>
</trkpt>
<trkpt lat="31.7109600" lon="35.0225700">
<ele>379.250000</ele>
<time>2021-10-27T17:38:01.283Z</time>
</trkpt>
<trkpt lat="31.7109300" lon="35.0228000">
<ele>382.929993</ele>
<time>2021-10-27T17:38:01.283Z</time>
</trkpt>
<trkpt lat="31.7109300" lon="35.0229000">
<ele>384.369995</ele>
<time>2021-10-27T17:38:01.283Z</time>
</trkpt>
<trkpt lat="31.7109300" lon="35.0230500">
<ele>386.529999</ele>
<time>2021-10-27T17:38:01.283Z</time>
</trkpt>
<trkpt lat="31.7110300" lon="35.0238400">
<ele>396.109985</ele>
<time>2021-10-27T17:38:01.283Z</time>
</trkpt>
<trkpt lat="31.7110700" lon="35.0239700">
<ele>398.690002</ele>
<time>2021-10-27T17:38:01.283Z</time>
</trkpt>
<trkpt lat="31.7112400" lon="35.0243600">
<ele>404.139984</ele>
<time>2021-10-27T17:38:01.283Z</time>
</trkpt>
<trkpt lat="31.7117800" lon="35.0253000">
<ele>414.859985</ele>
<time>2021-10-27T17:38:01.283Z</time>
</trkpt>
<trkpt lat="31.7119600" lon="35.0257000">
<ele>417.050018</ele>
<time>2021-10-27T17:38:01.284Z</time>
</trkpt>
<trkpt lat="31.7122800" lon="35.0262200">
<ele>418.269989</ele>
<time>2021-10-27T17:38:01.284Z</time>
</trkpt>
<trkpt lat="31.7124400" lon="35.0265600">
<ele>420.730011</ele>
<time>2021-10-27T17:38:01.284Z</time>
</trkpt>
<trkpt lat="31.7127600" lon="35.0272100">
<ele>425.190002</ele>
<time>2021-10-27T17:38:01.284Z</time>
</trkpt>
<trkpt lat="31.7130100" lon="35.0278500">
<ele>434.040009</ele>
<time>2021-10-27T17:38:01.284Z</time>
</trkpt>
<trkpt lat="31.7132100" lon="35.0280600">
<ele>434.910004</ele>
<time>2021-10-27T17:38:01.284Z</time>
</trkpt>
<trkpt lat="31.7133500" lon="35.0282300">
<ele>435.340027</ele>
<time>2021-10-27T17:38:01.284Z</time>
</trkpt>
<trkpt lat="31.7134800" lon="35.0287900">
<ele>438.649994</ele>
<time>2021-10-27T17:38:01.284Z</time>
</trkpt>
<trkpt lat="31.7135100" lon="35.0295600">
<ele>450.209991</ele>
<time>2021-10-27T17:38:01.284Z</time>
</trkpt>
<trkpt lat="31.7134500" lon="35.0302800">
<ele>457.690002</ele>
<time>2021-10-27T17:38:01.284Z</time>
</trkpt>
<trkpt lat="31.7132500" lon="35.0308800">
<ele>457.860016</ele>
<time>2021-10-27T17:38:01.284Z</time>
</trkpt>
<trkpt lat="31.7127900" lon="35.0315700">
<ele>459.779999</ele>
<time>2021-10-27T17:38:01.284Z</time>
</trkpt>
<trkpt lat="31.7122200" lon="35.0321800">
<ele>462.740021</ele>
<time>2021-10-27T17:38:01.284Z</time>
</trkpt>
<trkpt lat="31.7120300" lon="35.0325500">
<ele>464.100006</ele>
<time>2021-10-27T17:38:01.284Z</time>
</trkpt>
<trkpt lat="31.7118000" lon="35.0328600">
<ele>471.709991</ele>
<time>2021-10-27T17:38:01.285Z</time>
</trkpt>
<trkpt lat="31.7117500" lon="35.0329400">
<ele>473.470001</ele>
<time>2021-10-27T17:38:01.285Z</time>
</trkpt>
<trkpt lat="31.7117200" lon="35.0331800">
<ele>473.549988</ele>
<time>2021-10-27T17:38:01.285Z</time>
</trkpt>
<trkpt lat="31.7117100" lon="35.0334200">
<ele>473.750000</ele>
<time>2021-10-27T17:38:01.285Z</time>
</trkpt>
<trkpt lat="31.7117100" lon="35.0339400">
<ele>479.050018</ele>
<time>2021-10-27T17:38:01.285Z</time>
</trkpt>
<trkpt lat="31.7121600" lon="35.0354400">
<ele>486.220001</ele>
<time>2021-10-27T17:38:01.285Z</time>
</trkpt>
<trkpt lat="31.7121800" lon="35.0367500">
<ele>506.260010</ele>
<time>2021-10-27T17:38:01.285Z</time>
</trkpt>
<trkpt lat="31.7122700" lon="35.0375700">
<ele>511.899994</ele>
<time>2021-10-27T17:38:01.285Z</time>
</trkpt>
<trkpt lat="31.7125100" lon="35.0381700">
<ele>513.580017</ele>
<time>2021-10-27T17:38:01.285Z</time>
</trkpt>
<trkpt lat="31.7132500" lon="35.0396400">
<ele>531.589966</ele>
<time>2021-10-27T17:38:01.285Z</time>
</trkpt>
<trkpt lat="31.7137000" lon="35.0402700">
<ele>538.859985</ele>
<time>2021-10-27T17:38:01.285Z</time>
</trkpt>
<trkpt lat="31.7147700" lon="35.0414600">
<ele>549.739990</ele>
<time>2021-10-27T17:38:01.285Z</time>
</trkpt>
<trkpt lat="31.7149800" lon="35.0418500">
<ele>547.429993</ele>
<time>2021-10-27T17:38:01.285Z</time>
</trkpt>
<trkpt lat="31.7150200" lon="35.0421200">
<ele>548.579956</ele>
<time>2021-10-27T17:38:01.285Z</time>
</trkpt>
<trkpt lat="31.7150100" lon="35.0427800">
<ele>548.739990</ele>
<time>2021-10-27T17:38:01.285Z</time>
</trkpt>
<trkpt lat="31.7148900" lon="35.0433100">
<ele>548.390015</ele>
<time>2021-10-27T17:38:01.285Z</time>
</trkpt>
<trkpt lat="31.7147300" lon="35.0435200">
<ele>551.409973</ele>
<time>2021-10-27T17:38:01.285Z</time>
</trkpt>
<trkpt lat="31.7141300" lon="35.0439500">
<ele>562.589966</ele>
<time>2021-10-27T17:38:01.286Z</time>
</trkpt>
<trkpt lat="31.7131700" lon="35.0449300">
<ele>579.940002</ele>
<time>2021-10-27T17:38:01.286Z</time>
</trkpt>
<trkpt lat="31.7124400" lon="35.0462200">
<ele>586.520020</ele>
<time>2021-10-27T17:38:01.286Z</time>
</trkpt>
<trkpt lat="31.7123200" lon="35.0464800">
<ele>589.250000</ele>
<time>2021-10-27T17:38:01.286Z</time>
</trkpt>
<trkpt lat="31.7122600" lon="35.0470800">
<ele>593.080017</ele>
<time>2021-10-27T17:38:01.286Z</time>
</trkpt>
<trkpt lat="31.7122300" lon="35.0471700">
<ele>593.729980</ele>
<time>2021-10-27T17:38:01.286Z</time>
</trkpt>
<trkpt lat="31.7122400" lon="35.0473700">
<ele>593.279968</ele>
<time>2021-10-27T17:38:01.286Z</time>
</trkpt>
<trkpt lat="31.7122100" lon="35.0475100">
<ele>593.130005</ele>
<time>2021-10-27T17:38:01.286Z</time>
</trkpt>
<trkpt lat="31.7121100" lon="35.0476400">
<ele>593.799988</ele>
<time>2021-10-27T17:38:01.286Z</time>
</trkpt>
<trkpt lat="31.7120900" lon="35.0476800">
<ele>593.809998</ele>
<time>2021-10-27T17:38:01.286Z</time>
</trkpt>
<trkpt lat="31.7120800" lon="35.0479200">
<ele>592.250000</ele>
<time>2021-10-27T17:38:01.286Z</time>
</trkpt>
<trkpt lat="31.7120800" lon="35.0481900">
<ele>588.399963</ele>
<time>2021-10-27T17:38:01.286Z</time>
</trkpt>
<trkpt lat="31.7120700" lon="35.0483600">
<ele>585.260010</ele>
<time>2021-10-27T17:38:01.286Z</time>
</trkpt>
<trkpt lat="31.7119400" lon="35.0487100">
<ele>581.029968</ele>
<time>2021-10-27T17:38:01.286Z</time>
</trkpt>
<trkpt lat="31.7115800" lon="35.0491900">
<ele>588.919983</ele>
<time>2021-10-27T17:38:01.286Z</time>
</trkpt>
<trkpt lat="31.7115600" lon="35.0492300">
<ele>589.329956</ele>
<time>2021-10-27T17:38:01.286Z</time>
</trkpt>
<trkpt lat="31.7114400" lon="35.0498000">
<ele>583.059998</ele>
<time>2021-10-27T17:38:01.286Z</time>
</trkpt>
<trkpt lat="31.7114100" lon="35.0501100">
<ele>585.600037</ele>
<time>2021-10-27T17:38:01.286Z</time>
</trkpt>
<trkpt lat="31.7114300" lon="35.0503800">
<ele>582.450012</ele>
<time>2021-10-27T17:38:01.286Z</time>
</trkpt>
<trkpt lat="31.7114700" lon="35.0503200">
<ele>581.940002</ele>
<time>2021-10-27T17:38:01.286Z</time>
</trkpt>
<trkpt lat="31.7116700" lon="35.0500300">
<ele>573.049988</ele>
<time>2021-10-27T17:38:01.286Z</time>
</trkpt>
<trkpt lat="31.7119700" lon="35.0497600">
<ele>569.270020</ele>
<time>2021-10-27T17:38:01.286Z</time>
</trkpt>
<trkpt lat="31.7122400" lon="35.0496000">
<ele>566.059998</ele>
<time>2021-10-27T17:38:01.286Z</time>
</trkpt>
<trkpt lat="31.7122700" lon="35.0496700">
<ele>564.880005</ele>
<time>2021-10-27T17:38:01.286Z</time>
</trkpt>
<trkpt lat="31.7122600" lon="35.0498700">
<ele>563.320007</ele>
<time>2021-10-27T17:38:01.286Z</time>
</trkpt>
<trkpt lat="31.7122700" lon="35.0499200">
<ele>562.770020</ele>
<time>2021-10-27T17:38:01.286Z</time>
</trkpt>
<trkpt lat="31.7122900" lon="35.0499300">
<ele>562.350037</ele>
<time>2021-10-27T17:38:01.286Z</time>
</trkpt>
<trkpt lat="31.7123700" lon="35.0498700">
<ele>561.520020</ele>
<time>2021-10-27T17:38:01.286Z</time>
</trkpt>
<trkpt lat="31.7125300" lon="35.0495900">
<ele>561.510010</ele>
<time>2021-10-27T17:38:01.286Z</time>
</trkpt>
<trkpt lat="31.7126700" lon="35.0493800">
<ele>559.010010</ele>
<time>2021-10-27T17:38:01.286Z</time>
</trkpt>
<trkpt lat="31.7128900" lon="35.0492500">
<ele>553.459961</ele>
<time>2021-10-27T17:38:01.286Z</time>
</trkpt>
<trkpt lat="31.7129200" lon="35.0493400">
<ele>551.520020</ele>
<time>2021-10-27T17:38:01.286Z</time>
</trkpt>
<trkpt lat="31.7129300" lon="35.0494000">
<ele>550.549988</ele>
<time>2021-10-27T17:38:01.286Z</time>
</trkpt>
<trkpt lat="31.7129300" lon="35.0497100">
<ele>547.630005</ele>
<time>2021-10-27T17:38:01.286Z</time>
</trkpt>
<trkpt lat="31.7129600" lon="35.0499800">
<ele>545.799988</ele>
<time>2021-10-27T17:38:01.286Z</time>
</trkpt>
<trkpt lat="31.7129800" lon="35.0501900">
<ele>545.179993</ele>
<time>2021-10-27T17:38:01.286Z</time>
</trkpt>
<trkpt lat="31.7130100" lon="35.0503300">
<ele>544.530029</ele>
<time>2021-10-27T17:38:01.286Z</time>
</trkpt>
<trkpt lat="31.7130900" lon="35.0504500">
<ele>543.119995</ele>
<time>2021-10-27T17:38:01.286Z</time>
</trkpt>
<trkpt lat="31.7131500" lon="35.0504900">
<ele>542.400024</ele>
<time>2021-10-27T17:38:01.286Z</time>
</trkpt>
<trkpt lat="31.7132100" lon="35.0505000">
<ele>541.580017</ele>
<time>2021-10-27T17:38:01.286Z</time>
</trkpt>
<trkpt lat="31.7134600" lon="35.0505100">
<ele>537.940002</ele>
<time>2021-10-27T17:38:01.286Z</time>
</trkpt>
<trkpt lat="31.7135500" lon="35.0505100">
<ele>536.589966</ele>
<time>2021-10-27T17:38:01.286Z</time>
</trkpt>
<trkpt lat="31.7137000" lon="35.0505000">
<ele>534.000000</ele>
<time>2021-10-27T17:38:01.286Z</time>
</trkpt>
<trkpt lat="31.7140700" lon="35.0505700">
<ele>529.900024</ele>
<time>2021-10-27T17:38:01.286Z</time>
</trkpt>
<trkpt lat="31.7143100" lon="35.0507800">
<ele>532.630005</ele>
<time>2021-10-27T17:38:01.286Z</time>
</trkpt>
<trkpt lat="31.7144200" lon="35.0510600">
<ele>533.070007</ele>
<time>2021-10-27T17:38:01.286Z</time>
</trkpt>
<trkpt lat="31.7144900" lon="35.0510800">
<ele>533.530029</ele>
<time>2021-10-27T17:38:01.286Z</time>
</trkpt>
<trkpt lat="31.7145800" lon="35.0511000">
<ele>534.500000</ele>
<time>2021-10-27T17:38:01.286Z</time>
</trkpt>
<trkpt lat="31.7148500" lon="35.0511500">
<ele>537.900024</ele>
<time>2021-10-27T17:38:01.286Z</time>
</trkpt>
<trkpt lat="31.7148600" lon="35.0514200">
<ele>538.649963</ele>
<time>2021-10-27T17:38:01.287Z</time>
</trkpt>
<trkpt lat="31.7148700" lon="35.0515800">
<ele>539.670044</ele>
<time>2021-10-27T17:38:01.287Z</time>
</trkpt>
<trkpt lat="31.7150500" lon="35.0515800">
<ele>542.660034</ele>
<time>2021-10-27T17:38:01.287Z</time>
</trkpt>
<trkpt lat="31.7150800" lon="35.0515900">
<ele>543.289978</ele>
<time>2021-10-27T17:38:01.287Z</time>
</trkpt>
<trkpt lat="31.7153800" lon="35.0522800">
<ele>551.369995</ele>
<time>2021-10-27T17:38:01.287Z</time>
</trkpt>
<trkpt lat="31.7154400" lon="35.0525800">
<ele>551.460022</ele>
<time>2021-10-27T17:38:01.287Z</time>
</trkpt>
<trkpt lat="31.7155900" lon="35.0530800">
<ele>550.549988</ele>
<time>2021-10-27T17:38:01.287Z</time>
</trkpt>
<trkpt lat="31.7156900" lon="35.0531800">
<ele>551.729980</ele>
<time>2021-10-27T17:38:01.287Z</time>
</trkpt>
<trkpt lat="31.7162200" lon="35.0535500">
<ele>556.739990</ele>
<time>2021-10-27T17:38:01.287Z</time>
</trkpt>
<trkpt lat="31.7164600" lon="35.0538700">
<ele>561.919983</ele>
<time>2021-10-27T17:38:01.287Z</time>
</trkpt>
<trkpt lat="31.7166400" lon="35.0541100">
<ele>564.690002</ele>
<time>2021-10-27T17:38:01.287Z</time>
</trkpt>
<trkpt lat="31.7169600" lon="35.0544400">
<ele>564.400024</ele>
<time>2021-10-27T17:38:01.287Z</time>
</trkpt>
<trkpt lat="31.7173900" lon="35.0547300">
<ele>562.690002</ele>
<time>2021-10-27T17:38:01.287Z</time>
</trkpt>
<trkpt lat="31.7177200" lon="35.0552000">
<ele>562.659973</ele>
<time>2021-10-27T17:38:01.287Z</time>
</trkpt>
<trkpt lat="31.7180300" lon="35.0559400">
<ele>564.679993</ele>
<time>2021-10-27T17:38:01.287Z</time>
</trkpt>
<trkpt lat="31.7185900" lon="35.0567100">
<ele>567.510010</ele>
<time>2021-10-27T17:38:01.287Z</time>
</trkpt>
<trkpt lat="31.7189300" lon="35.0569900">
<ele>567.920044</ele>
<time>2021-10-27T17:38:01.287Z</time>
</trkpt>
<trkpt lat="31.7196600" lon="35.0574200">
<ele>575.190002</ele>
<time>2021-10-27T17:38:01.287Z</time>
</trkpt>
<trkpt lat="31.7198000" lon="35.0576200">
<ele>574.950012</ele>
<time>2021-10-27T17:38:01.287Z</time>
</trkpt>
<trkpt lat="31.7198000" lon="35.0576200">
<ele>574.950012</ele>
<time>2021-10-27T17:38:01.287Z</time>
</trkpt>
<trkpt lat="31.7197900" lon="35.0576300">
<ele>574.590027</ele>
<time>2021-10-27T17:38:01.287Z</time>
</trkpt>
<trkpt lat="31.7198800" lon="35.0577500">
<ele>574.809998</ele>
<time>2021-10-27T17:38:01.287Z</time>
</trkpt>
<trkpt lat="31.7199800" lon="35.0579100">
<ele>576.059998</ele>
<time>2021-10-27T17:38:01.287Z</time>
</trkpt>
<trkpt lat="31.7201100" lon="35.0582800">
<ele>576.210022</ele>
<time>2021-10-27T17:38:01.287Z</time>
</trkpt>
<trkpt lat="31.7198200" lon="35.0585100">
<ele>570.539978</ele>
<time>2021-10-27T17:38:01.287Z</time>
</trkpt>
<trkpt lat="31.7199000" lon="35.0586700">
<ele>571.850037</ele>
<time>2021-10-27T17:38:01.287Z</time>
</trkpt>
<trkpt lat="31.7206700" lon="35.0600400">
<ele>583.059998</ele>
<time>2021-10-27T17:38:01.287Z</time>
</trkpt>
<trkpt lat="31.7208600" lon="35.0603000">
<ele>584.709961</ele>
<time>2021-10-27T17:38:01.287Z</time>
</trkpt>
<trkpt lat="31.7206300" lon="35.0606300">
<ele>583.659973</ele>
<time>2021-10-27T17:38:01.288Z</time>
</trkpt>
<trkpt lat="31.7205600" lon="35.0607000">
<ele>583.030029</ele>
<time>2021-10-27T17:38:01.288Z</time>
</trkpt>
<trkpt lat="31.7202800" lon="35.0608700">
<ele>583.130005</ele>
<time>2021-10-27T17:38:01.288Z</time>
</trkpt>
<trkpt lat="31.7204400" lon="35.0611200">
<ele>583.460022</ele>
<time>2021-10-27T17:38:01.288Z</time>
</trkpt>
<trkpt lat="31.7205400" lon="35.0613200">
<ele>583.850037</ele>
<time>2021-10-27T17:38:01.288Z</time>
</trkpt>
<trkpt lat="31.7206100" lon="35.0615000">
<ele>586.150024</ele>
<time>2021-10-27T17:38:01.288Z</time>
</trkpt>
<trkpt lat="31.7206800" lon="35.0617000">
<ele>588.630005</ele>
<time>2021-10-27T17:38:01.288Z</time>
</trkpt>
<trkpt lat="31.7207500" lon="35.0618900">
<ele>589.750000</ele>
<time>2021-10-27T17:38:01.288Z</time>
</trkpt>
<trkpt lat="31.7208200" lon="35.0620600">
<ele>590.019958</ele>
<time>2021-10-27T17:38:01.288Z</time>
</trkpt>
<trkpt lat="31.7209000" lon="35.0622500">
<ele>590.019958</ele>
<time>2021-10-27T17:38:01.288Z</time>
</trkpt>
<trkpt lat="31.7209900" lon="35.0624800">
<ele>590.520020</ele>
<time>2021-10-27T17:38:01.288Z</time>
</trkpt>
<trkpt lat="31.7210400" lon="35.0626400">
<ele>590.869995</ele>
<time>2021-10-27T17:38:01.288Z</time>
</trkpt>
<trkpt lat="31.7210800" lon="35.0627900">
<ele>591.049988</ele>
<time>2021-10-27T17:38:01.288Z</time>
</trkpt>
<trkpt lat="31.7211100" lon="35.0629700">
<ele>591.690002</ele>
<time>2021-10-27T17:38:01.288Z</time>
</trkpt>
<trkpt lat="31.7211400" lon="35.0632700">
<ele>592.690002</ele>
<time>2021-10-27T17:38:01.288Z</time>
</trkpt>
<trkpt lat="31.7211500" lon="35.0634200">
<ele>592.900024</ele>
<time>2021-10-27T17:38:01.288Z</time>
</trkpt>
<trkpt lat="31.7211500" lon="35.0634200">
<ele>592.900024</ele>
<time>2021-10-27T17:38:01.288Z</time>
</trkpt>
<trkpt lat="31.7211600" lon="35.0635100">
<ele>592.940002</ele>
<time>2021-10-27T17:38:01.288Z</time>
</trkpt>
<trkpt lat="31.7211600" lon="35.0636100">
<ele>593.000000</ele>
<time>2021-10-27T17:38:01.288Z</time>
</trkpt>
<trkpt lat="31.7211700" lon="35.0637100">
<ele>593.080017</ele>
<time>2021-10-27T17:38:01.288Z</time>
</trkpt>
<trkpt lat="31.7211700" lon="35.0638900">
<ele>593.210022</ele>
<time>2021-10-27T17:38:01.288Z</time>
</trkpt>
<trkpt lat="31.7211700" lon="35.0640400">
<ele>592.669983</ele>
<time>2021-10-27T17:38:01.288Z</time>
</trkpt>
<trkpt lat="31.7211500" lon="35.0641300">
<ele>592.270020</ele>
<time>2021-10-27T17:38:01.289Z</time>
</trkpt>
<trkpt lat="31.7211200" lon="35.0642300">
<ele>591.820007</ele>
<time>2021-10-27T17:38:01.289Z</time>
</trkpt>
<trkpt lat="31.7210700" lon="35.0643700">
<ele>591.559998</ele>
<time>2021-10-27T17:38:01.289Z</time>
</trkpt>
<trkpt lat="31.7210500" lon="35.0644500">
<ele>591.489990</ele>
<time>2021-10-27T17:38:01.290Z</time>
</trkpt>
<trkpt lat="31.7210400" lon="35.0645300">
<ele>592.200012</ele>
<time>2021-10-27T17:38:01.290Z</time>
</trkpt>
<trkpt lat="31.7210400" lon="35.0646700">
<ele>593.320007</ele>
<time>2021-10-27T17:38:01.290Z</time>
</trkpt>
<trkpt lat="31.7210400" lon="35.0647100">
<ele>593.650024</ele>
<time>2021-10-27T17:38:01.290Z</time>
</trkpt>
<trkpt lat="31.7210500" lon="35.0648000">
<ele>594.559998</ele>
<time>2021-10-27T17:38:01.290Z</time>
</trkpt>
<trkpt lat="31.7211600" lon="35.0652200">
<ele>598.070007</ele>
<time>2021-10-27T17:38:01.290Z</time>
</trkpt>
<trkpt lat="31.7213000" lon="35.0657500">
<ele>598.739990</ele>
<time>2021-10-27T17:38:01.290Z</time>
</trkpt>
<trkpt lat="31.7213200" lon="35.0658200">
<ele>598.360046</ele>
<time>2021-10-27T17:38:01.290Z</time>
</trkpt>
<trkpt lat="31.7214300" lon="35.0662600">
<ele>598.669983</ele>
<time>2021-10-27T17:38:01.290Z</time>
</trkpt>
<trkpt lat="31.7214900" lon="35.0664800">
<ele>598.969971</ele>
<time>2021-10-27T17:38:01.290Z</time>
</trkpt>
<trkpt lat="31.7215200" lon="35.0665900">
<ele>598.700012</ele>
<time>2021-10-27T17:38:01.290Z</time>
</trkpt>
<trkpt lat="31.7215500" lon="35.0666700">
<ele>598.279968</ele>
<time>2021-10-27T17:38:01.290Z</time>
</trkpt>
<trkpt lat="31.7215800" lon="35.0667300">
<ele>598.309998</ele>
<time>2021-10-27T17:38:01.290Z</time>
</trkpt>
<trkpt lat="31.7216300" lon="35.0668200">
<ele>598.090027</ele>
<time>2021-10-27T17:38:01.290Z</time>
</trkpt>
<trkpt lat="31.7217000" lon="35.0669300">
<ele>597.830017</ele>
<time>2021-10-27T17:38:01.290Z</time>
</trkpt>
<trkpt lat="31.7217500" lon="35.0670100">
<ele>598.029968</ele>
<time>2021-10-27T17:38:01.290Z</time>
</trkpt>
<trkpt lat="31.7217800" lon="35.0670700">
<ele>598.130005</ele>
<time>2021-10-27T17:38:01.290Z</time>
</trkpt>
<trkpt lat="31.7218500" lon="35.0672400">
<ele>597.979980</ele>
<time>2021-10-27T17:38:01.290Z</time>
</trkpt>
<trkpt lat="31.7220900" lon="35.0677700">
<ele>595.000000</ele>
<time>2021-10-27T17:38:01.290Z</time>
</trkpt>
<trkpt lat="31.7220900" lon="35.0678200">
<ele>595.359985</ele>
<time>2021-10-27T17:38:01.290Z</time>
</trkpt>
<trkpt lat="31.7220900" lon="35.0678700">
<ele>595.790039</ele>
<time>2021-10-27T17:38:01.290Z</time>
</trkpt>
<trkpt lat="31.7221000" lon="35.0687300">
<ele>600.309998</ele>
<time>2021-10-27T17:38:01.290Z</time>
</trkpt>
<trkpt lat="31.7221500" lon="35.0687300">
<ele>599.299988</ele>
<time>2021-10-27T17:38:01.290Z</time>
</trkpt>
<trkpt lat="31.7221500" lon="35.0687300">
<ele>599.299988</ele>
<time>2021-10-27T17:38:01.290Z</time>
</trkpt>
<trkpt lat="31.7221600" lon="35.0700000">
<ele>606.220032</ele>
<time>2021-10-27T17:38:01.290Z</time>
</trkpt>
<trkpt lat="31.7223100" lon="35.0706300">
<ele>607.700012</ele>
<time>2021-10-27T17:38:01.291Z</time>
</trkpt>
<trkpt lat="31.7225100" lon="35.0714200">
<ele>608.339966</ele>
<time>2021-10-27T17:38:01.291Z</time>
</trkpt>
<trkpt lat="31.7225100" lon="35.0719600">
<ele>616.099976</ele>
<time>2021-10-27T17:38:01.291Z</time>
</trkpt>
<trkpt lat="31.7226100" lon="35.0733600">
<ele>626.019958</ele>
<time>2021-10-27T17:38:01.291Z</time>
</trkpt>
<trkpt lat="31.7228800" lon="35.0742500">
<ele>623.669983</ele>
<time>2021-10-27T17:38:01.291Z</time>
</trkpt>
<trkpt lat="31.7229900" lon="35.0745900">
<ele>624.450012</ele>
<time>2021-10-27T17:38:01.291Z</time>
</trkpt>
<trkpt lat="31.7233400" lon="35.0767600">
<ele>634.089966</ele>
<time>2021-10-27T17:38:01.291Z</time>
</trkpt>
<trkpt lat="31.7233000" lon="35.0784200">
<ele>643.540039</ele>
<time>2021-10-27T17:38:01.291Z</time>
</trkpt>
<trkpt lat="31.7233300" lon="35.0789500">
<ele>647.729980</ele>
<time>2021-10-27T17:38:01.291Z</time>
</trkpt>
<trkpt lat="31.7234400" lon="35.0799800">
<ele>653.540039</ele>
<time>2021-10-27T17:38:01.291Z</time>
</trkpt>
<trkpt lat="31.7237200" lon="35.0808900">
<ele>658.679993</ele>
<time>2021-10-27T17:38:01.291Z</time>
</trkpt>
<trkpt lat="31.7242100" lon="35.0819700">
<ele>667.979980</ele>
<time>2021-10-27T17:38:01.291Z</time>
</trkpt>
<trkpt lat="31.7245900" lon="35.0832900">
<ele>671.800049</ele>
<time>2021-10-27T17:38:01.291Z</time>
</trkpt>
<trkpt lat="31.7251200" lon="35.0843400">
<ele>677.960022</ele>
<time>2021-10-27T17:38:01.291Z</time>
</trkpt>
<trkpt lat="31.7251700" lon="35.0845500">
<ele>679.679993</ele>
<time>2021-10-27T17:38:01.291Z</time>
</trkpt>
<trkpt lat="31.7252400" lon="35.0854100">
<ele>686.180054</ele>
<time>2021-10-27T17:38:01.291Z</time>
</trkpt>
<trkpt lat="31.7251800" lon="35.0862900">
<ele>699.570007</ele>
<time>2021-10-27T17:38:01.291Z</time>
</trkpt>
<trkpt lat="31.7251900" lon="35.0878900">
<ele>714.849976</ele>
<time>2021-10-27T17:38:01.291Z</time>
</trkpt>
<trkpt lat="31.7252100" lon="35.0881100">
<ele>714.680054</ele>
<time>2021-10-27T17:38:01.291Z</time>
</trkpt>
<trkpt lat="31.7252200" lon="35.0884500">
<ele>716.010010</ele>
<time>2021-10-27T17:38:01.292Z</time>
</trkpt>
<trkpt lat="31.7253400" lon="35.0887300">
<ele>715.859985</ele>
<time>2021-10-27T17:38:01.292Z</time>
</trkpt>
<trkpt lat="31.7255500" lon="35.0890200">
<ele>714.970032</ele>
<time>2021-10-27T17:38:01.292Z</time>
</trkpt>
<trkpt lat="31.7256200" lon="35.0890300">
<ele>715.029968</ele>
<time>2021-10-27T17:38:01.292Z</time>
</trkpt>
<trkpt lat="31.7258900" lon="35.0890200">
<ele>715.150024</ele>
<time>2021-10-27T17:38:01.292Z</time>
</trkpt>
<trkpt lat="31.7262100" lon="35.0890000">
<ele>716.729980</ele>
<time>2021-10-27T17:38:01.292Z</time>
</trkpt>
<trkpt lat="31.7263700" lon="35.0889700">
<ele>718.109985</ele>
<time>2021-10-27T17:38:01.292Z</time>
</trkpt>
<trkpt lat="31.7264600" lon="35.0890100">
<ele>718.979980</ele>
<time>2021-10-27T17:38:01.292Z</time>
</trkpt>
<trkpt lat="31.7263700" lon="35.0891800">
<ele>718.869995</ele>
<time>2021-10-27T17:38:01.292Z</time>
</trkpt>
<trkpt lat="31.7264800" lon="35.0893800">
<ele>719.079956</ele>
<time>2021-10-27T17:38:01.292Z</time>
</trkpt>
<trkpt lat="31.7265400" lon="35.0895300">
<ele>718.219971</ele>
<time>2021-10-27T17:38:01.292Z</time>
</trkpt>
<trkpt lat="31.7266400" lon="35.0900800">
<ele>712.709961</ele>
<time>2021-10-27T17:38:01.292Z</time>
</trkpt>
<trkpt lat="31.7267000" lon="35.0904000">
<ele>711.890015</ele>
<time>2021-10-27T17:38:01.292Z</time>
</trkpt>
<trkpt lat="31.7267900" lon="35.0909100">
<ele>710.510010</ele>
<time>2021-10-27T17:38:01.292Z</time>
</trkpt>
<trkpt lat="31.7268500" lon="35.0913900">
<ele>709.339966</ele>
<time>2021-10-27T17:38:01.292Z</time>
</trkpt>
<trkpt lat="31.7269800" lon="35.0921000">
<ele>700.500000</ele>
<time>2021-10-27T17:38:01.292Z</time>
</trkpt>
<trkpt lat="31.7269900" lon="35.0921900">
<ele>698.349976</ele>
<time>2021-10-27T17:38:01.292Z</time>
</trkpt>
<trkpt lat="31.7270200" lon="35.0926100">
<ele>689.829956</ele>
<time>2021-10-27T17:38:01.292Z</time>
</trkpt>
<trkpt lat="31.7271300" lon="35.0930700">
<ele>684.630005</ele>
<time>2021-10-27T17:38:01.293Z</time>
</trkpt>
<trkpt lat="31.7271300" lon="35.0931300">
<ele>684.479980</ele>
<time>2021-10-27T17:38:01.293Z</time>
</trkpt>
<trkpt lat="31.7271400" lon="35.0932600">
<ele>684.070007</ele>
<time>2021-10-27T17:38:01.293Z</time>
</trkpt>
<trkpt lat="31.7271300" lon="35.0935000">
<ele>682.400024</ele>
<time>2021-10-27T17:38:01.293Z</time>
</trkpt>
<trkpt lat="31.7271000" lon="35.0937600">
<ele>679.380005</ele>
<time>2021-10-27T17:38:01.293Z</time>
</trkpt>
<trkpt lat="31.7268700" lon="35.0944600">
<ele>674.700012</ele>
<time>2021-10-27T17:38:01.293Z</time>
</trkpt>
<trkpt lat="31.7267800" lon="35.0945700">
<ele>674.520020</ele>
<time>2021-10-27T17:38:01.293Z</time>
</trkpt>
<trkpt lat="31.7266800" lon="35.0946500">
<ele>674.000000</ele>
<time>2021-10-27T17:38:01.293Z</time>
</trkpt>
<trkpt lat="31.7259200" lon="35.0950600">
<ele>678.929993</ele>
<time>2021-10-27T17:38:01.293Z</time>
</trkpt>
<trkpt lat="31.7254700" lon="35.0953300">
<ele>682.869995</ele>
<time>2021-10-27T17:38:01.293Z</time>
</trkpt>
<trkpt lat="31.7254000" lon="35.0953800">
<ele>683.890015</ele>
<time>2021-10-27T17:38:01.293Z</time>
</trkpt>
<trkpt lat="31.7253700" lon="35.0955100">
<ele>682.880005</ele>
<time>2021-10-27T17:38:01.293Z</time>
</trkpt>
<trkpt lat="31.7253600" lon="35.0957500">
<ele>681.760010</ele>
<time>2021-10-27T17:38:01.293Z</time>
</trkpt>
<trkpt lat="31.7253600" lon="35.0958400">
<ele>681.549988</ele>
<time>2021-10-27T17:38:01.293Z</time>
</trkpt>
<trkpt lat="31.7253900" lon="35.0959300">
<ele>682.989990</ele>
<time>2021-10-27T17:38:01.293Z</time>
</trkpt>
<trkpt lat="31.7254100" lon="35.0959900">
<ele>683.830017</ele>
<time>2021-10-27T17:38:01.294Z</time>
</trkpt>
<trkpt lat="31.7254200" lon="35.0960300">
<ele>684.300049</ele>
<time>2021-10-27T17:38:01.294Z</time>
</trkpt>
<trkpt lat="31.7258300" lon="35.0959800">
<ele>685.530029</ele>
<time>2021-10-27T17:38:01.294Z</time>
</trkpt>
<trkpt lat="31.7260500" lon="35.0960100">
<ele>684.219971</ele>
<time>2021-10-27T17:38:01.294Z</time>
</trkpt>
<trkpt lat="31.7263700" lon="35.0960200">
<ele>681.540039</ele>
<time>2021-10-27T17:38:01.294Z</time>
</trkpt>
<trkpt lat="31.7270600" lon="35.0959100">
<ele>684.800049</ele>
<time>2021-10-27T17:38:01.294Z</time>
</trkpt>
<trkpt lat="31.7278200" lon="35.0958100">
<ele>693.639954</ele>
<time>2021-10-27T17:38:01.294Z</time>
</trkpt>
<trkpt lat="31.7281700" lon="35.0959200">
<ele>696.039978</ele>
<time>2021-10-27T17:38:01.294Z</time>
</trkpt>
<trkpt lat="31.7286500" lon="35.0963400">
<ele>697.260010</ele>
<time>2021-10-27T17:38:01.294Z</time>
</trkpt>
<trkpt lat="31.7290600" lon="35.0965100">
<ele>693.470032</ele>
<time>2021-10-27T17:38:01.294Z</time>
</trkpt>
<trkpt lat="31.7293600" lon="35.0965400">
<ele>694.040039</ele>
<time>2021-10-27T17:38:01.294Z</time>
</trkpt>
<trkpt lat="31.7295600" lon="35.0965400">
<ele>692.270020</ele>
<time>2021-10-27T17:38:01.294Z</time>
</trkpt>
<trkpt lat="31.7298400" lon="35.0965400">
<ele>687.340027</ele>
<time>2021-10-27T17:38:01.294Z</time>
</trkpt>
<trkpt lat="31.7304200" lon="35.0965900">
<ele>679.690002</ele>
<time>2021-10-27T17:38:01.294Z</time>
</trkpt>
<trkpt lat="31.7309700" lon="35.0966100">
<ele>671.399963</ele>
<time>2021-10-27T17:38:01.294Z</time>
</trkpt>
<trkpt lat="31.7312900" lon="35.0966300">
<ele>670.500000</ele>
<time>2021-10-27T17:38:01.294Z</time>
</trkpt>
<trkpt lat="31.7314900" lon="35.0965900">
<ele>669.280029</ele>
<time>2021-10-27T17:38:01.294Z</time>
</trkpt>
<trkpt lat="31.7316000" lon="35.0965100">
<ele>669.309998</ele>
<time>2021-10-27T17:38:01.294Z</time>
</trkpt>
<trkpt lat="31.7317600" lon="35.0963600">
<ele>668.969971</ele>
<time>2021-10-27T17:38:01.294Z</time>
</trkpt>
<trkpt lat="31.7318800" lon="35.0961600">
<ele>670.470032</ele>
<time>2021-10-27T17:38:01.294Z</time>
</trkpt>
<trkpt lat="31.7320200" lon="35.0958100">
<ele>672.099976</ele>
<time>2021-10-27T17:38:01.294Z</time>
</trkpt>
<trkpt lat="31.7320500" lon="35.0955900">
<ele>673.559998</ele>
<time>2021-10-27T17:38:01.294Z</time>
</trkpt>
<trkpt lat="31.7321800" lon="35.0950000">
<ele>677.369995</ele>
<time>2021-10-27T17:38:01.294Z</time>
</trkpt>
<trkpt lat="31.7322800" lon="35.0947500">
<ele>678.250000</ele>
<time>2021-10-27T17:38:01.294Z</time>
</trkpt>
<trkpt lat="31.7324800" lon="35.0941800">
<ele>676.299988</ele>
<time>2021-10-27T17:38:01.294Z</time>
</trkpt>
<trkpt lat="31.7325900" lon="35.0939000">
<ele>674.410034</ele>
<time>2021-10-27T17:38:01.294Z</time>
</trkpt>
<trkpt lat="31.7328000" lon="35.0934500">
<ele>670.790039</ele>
<time>2021-10-27T17:38:01.295Z</time>
</trkpt>
<trkpt lat="31.7332400" lon="35.0925800">
<ele>674.250000</ele>
<time>2021-10-27T17:38:01.295Z</time>
</trkpt>
<trkpt lat="31.7332700" lon="35.0925200">
<ele>673.599976</ele>
<time>2021-10-27T17:38:01.295Z</time>
</trkpt>
<trkpt lat="31.7333800" lon="35.0920300">
<ele>679.229980</ele>
<time>2021-10-27T17:38:01.295Z</time>
</trkpt>
<trkpt lat="31.7334700" lon="35.0910000">
<ele>685.759949</ele>
<time>2021-10-27T17:38:01.295Z</time>
</trkpt>
<trkpt lat="31.7335100" lon="35.0908600">
<ele>685.099976</ele>
<time>2021-10-27T17:38:01.295Z</time>
</trkpt>
<trkpt lat="31.7337500" lon="35.0903200">
<ele>685.119995</ele>
<time>2021-10-27T17:38:01.296Z</time>
</trkpt>
<trkpt lat="31.7340400" lon="35.0897000">
<ele>682.209961</ele>
<time>2021-10-27T17:38:01.296Z</time>
</trkpt>
<trkpt lat="31.7342300" lon="35.0894000">
<ele>679.140015</ele>
<time>2021-10-27T17:38:01.296Z</time>
</trkpt>
<trkpt lat="31.7343000" lon="35.0891900">
<ele>678.040039</ele>
<time>2021-10-27T17:38:01.296Z</time>
</trkpt>
<trkpt lat="31.7343700" lon="35.0888000">
<ele>678.309998</ele>
<time>2021-10-27T17:38:01.296Z</time>
</trkpt>
<trkpt lat="31.7345300" lon="35.0884900">
<ele>675.369995</ele>
<time>2021-10-27T17:38:01.296Z</time>
</trkpt>
<trkpt lat="31.7347700" lon="35.0878500">
<ele>674.190002</ele>
<time>2021-10-27T17:38:01.296Z</time>
</trkpt>
<trkpt lat="31.7347900" lon="35.0877000">
<ele>674.840027</ele>
<time>2021-10-27T17:38:01.296Z</time>
</trkpt>
<trkpt lat="31.7348000" lon="35.0875500">
<ele>674.929993</ele>
<time>2021-10-27T17:38:01.296Z</time>
</trkpt>
<trkpt lat="31.7347900" lon="35.0874200">
<ele>674.710022</ele>
<time>2021-10-27T17:38:01.296Z</time>
</trkpt>
<trkpt lat="31.7347900" lon="35.0872800">
<ele>674.210022</ele>
<time>2021-10-27T17:38:01.296Z</time>
</trkpt>
<trkpt lat="31.7348100" lon="35.0872000">
<ele>673.890015</ele>
<time>2021-10-27T17:38:01.296Z</time>
</trkpt>
<trkpt lat="31.7350000" lon="35.0866900">
<ele>671.080017</ele>
<time>2021-10-27T17:38:01.296Z</time>
</trkpt>
<trkpt lat="31.7350200" lon="35.0865800">
<ele>671.700012</ele>
<time>2021-10-27T17:38:01.296Z</time>
</trkpt>
<trkpt lat="31.7350100" lon="35.0864800">
<ele>672.880005</ele>
<time>2021-10-27T17:38:01.296Z</time>
</trkpt>
<trkpt lat="31.7349800" lon="35.0864500">
<ele>673.320007</ele>
<time>2021-10-27T17:38:01.296Z</time>
</trkpt>
<trkpt lat="31.7349000" lon="35.0864300">
<ele>673.359985</ele>
<time>2021-10-27T17:38:01.296Z</time>
</trkpt>
<trkpt lat="31.7348500" lon="35.0864200">
<ele>673.309998</ele>
<time>2021-10-27T17:38:01.296Z</time>
</trkpt>
<trkpt lat="31.7347500" lon="35.0866700">
<ele>672.799988</ele>
<time>2021-10-27T17:38:01.296Z</time>
</trkpt>
<trkpt lat="31.7347300" lon="35.0869000">
<ele>672.969971</ele>
<time>2021-10-27T17:38:01.297Z</time>
</trkpt>
<trkpt lat="31.7346500" lon="35.0871500">
<ele>672.770020</ele>
<time>2021-10-27T17:38:01.297Z</time>
</trkpt>
<trkpt lat="31.7346100" lon="35.0872000">
<ele>672.339966</ele>
<time>2021-10-27T17:38:01.297Z</time>
</trkpt>
<trkpt lat="31.7343200" lon="35.0873800">
<ele>669.419983</ele>
<time>2021-10-27T17:38:01.297Z</time>
</trkpt>
<trkpt lat="31.7338200" lon="35.0876400">
<ele>667.760010</ele>
<time>2021-10-27T17:38:01.297Z</time>
</trkpt>
<trkpt lat="31.7335200" lon="35.0878900">
<ele>672.350037</ele>
<time>2021-10-27T17:38:01.297Z</time>
</trkpt>
<trkpt lat="31.7331200" lon="35.0881500">
<ele>671.650024</ele>
<time>2021-10-27T17:38:01.297Z</time>
</trkpt>
<trkpt lat="31.7328200" lon="35.0883000">
<ele>667.739990</ele>
<time>2021-10-27T17:38:01.297Z</time>
</trkpt>
<trkpt lat="31.7326000" lon="35.0884500">
<ele>670.750000</ele>
<time>2021-10-27T17:38:01.297Z</time>
</trkpt>
<trkpt lat="31.7322200" lon="35.0887600">
<ele>675.130005</ele>
<time>2021-10-27T17:38:01.297Z</time>
</trkpt>
<trkpt lat="31.7318500" lon="35.0890900">
<ele>677.459961</ele>
<time>2021-10-27T17:38:01.297Z</time>
</trkpt>
<trkpt lat="31.7316700" lon="35.0893000">
<ele>679.460022</ele>
<time>2021-10-27T17:38:01.297Z</time>
</trkpt>
<trkpt lat="31.7311800" lon="35.0897400">
<ele>676.859985</ele>
<time>2021-10-27T17:38:01.297Z</time>
</trkpt>
<trkpt lat="31.7310400" lon="35.0898300">
<ele>676.070007</ele>
<time>2021-10-27T17:38:01.297Z</time>
</trkpt>
<trkpt lat="31.7306400" lon="35.0900600">
<ele>675.709961</ele>
<time>2021-10-27T17:38:01.297Z</time>
</trkpt>
<trkpt lat="31.7304800" lon="35.0901800">
<ele>676.220032</ele>
<time>2021-10-27T17:38:01.297Z</time>
</trkpt>
<trkpt lat="31.7302900" lon="35.0903700">
<ele>678.720032</ele>
<time>2021-10-27T17:38:01.297Z</time>
</trkpt>
<trkpt lat="31.7300100" lon="35.0908100">
<ele>680.010010</ele>
<time>2021-10-27T17:38:01.297Z</time>
</trkpt>
<trkpt lat="31.7299400" lon="35.0908400">
<ele>679.209961</ele>
<time>2021-10-27T17:38:01.298Z</time>
</trkpt>
<trkpt lat="31.7299000" lon="35.0908200">
<ele>678.449951</ele>
<time>2021-10-27T17:38:01.298Z</time>
</trkpt>
<trkpt lat="31.7299000" lon="35.0907400">
<ele>677.769958</ele>
<time>2021-10-27T17:38:01.298Z</time>
</trkpt>
<trkpt lat="31.7299300" lon="35.0906000">
<ele>677.100037</ele>
<time>2021-10-27T17:38:01.298Z</time>
</trkpt>
<trkpt lat="31.7301600" lon="35.0901400">
<ele>673.459961</ele>
<time>2021-10-27T17:38:01.298Z</time>
</trkpt>
<trkpt lat="31.7302700" lon="35.0899800">
<ele>671.730042</ele>
<time>2021-10-27T17:38:01.298Z</time>
</trkpt>
<trkpt lat="31.7305400" lon="35.0897000">
<ele>671.679993</ele>
<time>2021-10-27T17:38:01.298Z</time>
</trkpt>
<trkpt lat="31.7305600" lon="35.0896100">
<ele>671.219971</ele>
<time>2021-10-27T17:38:01.298Z</time>
</trkpt>
<trkpt lat="31.7305800" lon="35.0895200">
<ele>670.660034</ele>
<time>2021-10-27T17:38:01.298Z</time>
</trkpt>
<trkpt lat="31.7305400" lon="35.0894800">
<ele>670.140015</ele>
<time>2021-10-27T17:38:01.298Z</time>
</trkpt>
<trkpt lat="31.7304600" lon="35.0895200">
<ele>669.759949</ele>
<time>2021-10-27T17:38:01.298Z</time>
</trkpt>
<trkpt lat="31.7302800" lon="35.0896800">
<ele>668.869995</ele>
<time>2021-10-27T17:38:01.298Z</time>
</trkpt>
<trkpt lat="31.7301300" lon="35.0897600">
<ele>668.800049</ele>
<time>2021-10-27T17:38:01.298Z</time>
</trkpt>
<trkpt lat="31.7299600" lon="35.0898400">
<ele>668.150024</ele>
<time>2021-10-27T17:38:01.298Z</time>
</trkpt>
<trkpt lat="31.7298600" lon="35.0899300">
<ele>666.729980</ele>
<time>2021-10-27T17:38:01.298Z</time>
</trkpt>
<trkpt lat="31.7294900" lon="35.0902900">
<ele>663.130005</ele>
<time>2021-10-27T17:38:01.298Z</time>
</trkpt>
<trkpt lat="31.7294300" lon="35.0903000">
<ele>662.130005</ele>
<time>2021-10-27T17:38:01.298Z</time>
</trkpt>
<trkpt lat="31.7293500" lon="35.0903100">
<ele>661.630005</ele>
<time>2021-10-27T17:38:01.298Z</time>
</trkpt>
<trkpt lat="31.7291400" lon="35.0903100">
<ele>660.320007</ele>
<time>2021-10-27T17:38:01.299Z</time>
</trkpt>
<trkpt lat="31.7288800" lon="35.0902500">
<ele>661.210022</ele>
<time>2021-10-27T17:38:01.299Z</time>
</trkpt>
<trkpt lat="31.7291200" lon="35.0898200">
<ele>659.320007</ele>
<time>2021-10-27T17:38:01.299Z</time>
</trkpt>
<trkpt lat="31.7300700" lon="35.0885400">
<ele>658.630005</ele>
<time>2021-10-27T17:38:01.299Z</time>
</trkpt>
<trkpt lat="31.7304800" lon="35.0879200">
<ele>661.600037</ele>
<time>2021-10-27T17:38:01.299Z</time>
</trkpt>
<trkpt lat="31.7307600" lon="35.0874500">
<ele>660.159973</ele>
<time>2021-10-27T17:38:01.299Z</time>
</trkpt>
<trkpt lat="31.7309800" lon="35.0868600">
<ele>650.049988</ele>
<time>2021-10-27T17:38:01.299Z</time>
</trkpt>
<trkpt lat="31.7311200" lon="35.0867500">
<ele>644.700012</ele>
<time>2021-10-27T17:38:01.299Z</time>
</trkpt>
<trkpt lat="31.7314800" lon="35.0866400">
<ele>645.959961</ele>
<time>2021-10-27T17:38:01.299Z</time>
</trkpt>
<trkpt lat="31.7318400" lon="35.0862200">
<ele>651.970032</ele>
<time>2021-10-27T17:38:01.299Z</time>
</trkpt>
<trkpt lat="31.7322000" lon="35.0857900">
<ele>655.630005</ele>
<time>2021-10-27T17:38:01.299Z</time>
</trkpt>
<trkpt lat="31.7324100" lon="35.0852300">
<ele>654.140015</ele>
<time>2021-10-27T17:38:01.299Z</time>
</trkpt>
<trkpt lat="31.7325600" lon="35.0847300">
<ele>649.369995</ele>
<time>2021-10-27T17:38:01.299Z</time>
</trkpt>
<trkpt lat="31.7326200" lon="35.0842500">
<ele>648.220032</ele>
<time>2021-10-27T17:38:01.299Z</time>
</trkpt>
<trkpt lat="31.7326500" lon="35.0841500">
<ele>647.960022</ele>
<time>2021-10-27T17:38:01.299Z</time>
</trkpt>
<trkpt lat="31.7331300" lon="35.0830200">
<ele>638.880005</ele>
<time>2021-10-27T17:38:01.299Z</time>
</trkpt>
<trkpt lat="31.7332300" lon="35.0824300">
<ele>636.279968</ele>
<time>2021-10-27T17:38:01.299Z</time>
</trkpt>
<trkpt lat="31.7332700" lon="35.0816100">
<ele>639.010010</ele>
<time>2021-10-27T17:38:01.299Z</time>
</trkpt>
<trkpt lat="31.7332600" lon="35.0814800">
<ele>638.419983</ele>
<time>2021-10-27T17:38:01.299Z</time>
</trkpt>
<trkpt lat="31.7331000" lon="35.0811800">
<ele>640.890015</ele>
<time>2021-10-27T17:38:01.300Z</time>
</trkpt>
<trkpt lat="31.7330100" lon="35.0810800">
<ele>643.100037</ele>
<time>2021-10-27T17:38:01.300Z</time>
</trkpt>
<trkpt lat="31.7329200" lon="35.0810000">
<ele>644.799988</ele>
<time>2021-10-27T17:38:01.300Z</time>
</trkpt>
<trkpt lat="31.7326800" lon="35.0808900">
<ele>649.479980</ele>
<time>2021-10-27T17:38:01.300Z</time>
</trkpt>
<trkpt lat="31.7316900" lon="35.0807300">
<ele>672.400024</ele>
<time>2021-10-27T17:38:01.300Z</time>
</trkpt>
<trkpt lat="31.7313800" lon="35.0806500">
<ele>678.460022</ele>
<time>2021-10-27T17:38:01.300Z</time>
</trkpt>
<trkpt lat="31.7312500" lon="35.0805700">
<ele>678.289978</ele>
<time>2021-10-27T17:38:01.300Z</time>
</trkpt>
<trkpt lat="31.7311800" lon="35.0804300">
<ele>676.920044</ele>
<time>2021-10-27T17:38:01.300Z</time>
</trkpt>
<trkpt lat="31.7313900" lon="35.0790300">
<ele>669.449951</ele>
<time>2021-10-27T17:38:01.300Z</time>
</trkpt>
<trkpt lat="31.7315200" lon="35.0773900">
<ele>682.409973</ele>
<time>2021-10-27T17:38:01.300Z</time>
</trkpt>
<trkpt lat="31.7315500" lon="35.0772600">
<ele>681.859985</ele>
<time>2021-10-27T17:38:01.300Z</time>
</trkpt>
<trkpt lat="31.7331500" lon="35.0751300">
<ele>696.809998</ele>
<time>2021-10-27T17:38:01.300Z</time>
</trkpt>
<trkpt lat="31.7331000" lon="35.0748600">
<ele>695.409973</ele>
<time>2021-10-27T17:38:01.300Z</time>
</trkpt>
<trkpt lat="31.7332400" lon="35.0745800">
<ele>692.970032</ele>
<time>2021-10-27T17:38:01.300Z</time>
</trkpt>
<trkpt lat="31.7334700" lon="35.0746800">
<ele>694.830017</ele>
<time>2021-10-27T17:38:01.300Z</time>
</trkpt>
<trkpt lat="31.7336100" lon="35.0743900">
<ele>694.599976</ele>
<time>2021-10-27T17:38:01.300Z</time>
</trkpt>
<trkpt lat="31.7338000" lon="35.0738500">
<ele>694.300049</ele>
<time>2021-10-27T17:38:01.300Z</time>
</trkpt>
<trkpt lat="31.7338900" lon="35.0734900">
<ele>691.709961</ele>
<time>2021-10-27T17:38:01.300Z</time>
</trkpt>
<trkpt lat="31.7340800" lon="35.0729500">
<ele>689.780029</ele>
<time>2021-10-27T17:38:01.301Z</time>
</trkpt>
<trkpt lat="31.7342100" lon="35.0726800">
<ele>687.210022</ele>
<time>2021-10-27T17:38:01.301Z</time>
</trkpt>
<trkpt lat="31.7343800" lon="35.0724300">
<ele>687.440002</ele>
<time>2021-10-27T17:38:01.301Z</time>
</trkpt>
<trkpt lat="31.7344300" lon="35.0723200">
<ele>688.419983</ele>
<time>2021-10-27T17:38:01.301Z</time>
</trkpt>
<trkpt lat="31.7344300" lon="35.0723200">
<ele>688.419983</ele>
<time>2021-10-27T17:38:01.301Z</time>
</trkpt>
<trkpt lat="31.7344300" lon="35.0723200">
<ele>688.419983</ele>
<time>2021-10-27T17:38:01.301Z</time>
</trkpt>
<trkpt lat="31.7344700" lon="35.0722100">
<ele>689.099976</ele>
<time>2021-10-27T17:38:01.301Z</time>
</trkpt>
<trkpt lat="31.7346100" lon="35.0718100">
<ele>690.390015</ele>
<time>2021-10-27T17:38:01.301Z</time>
</trkpt>
<trkpt lat="31.7346100" lon="35.0718100">
<ele>690.390015</ele>
<time>2021-10-27T17:38:01.301Z</time>
</trkpt>
<trkpt lat="31.7344700" lon="35.0722100">
<ele>689.099976</ele>
<time>2021-10-27T17:38:01.301Z</time>
</trkpt>
<trkpt lat="31.7346300" lon="35.0721800">
<ele>689.770020</ele>
<time>2021-10-27T17:38:01.301Z</time>
</trkpt>
<trkpt lat="31.7347100" lon="35.0722500">
<ele>690.049988</ele>
<time>2021-10-27T17:38:01.301Z</time>
</trkpt>
<trkpt lat="31.7347200" lon="35.0722700">
<ele>690.159973</ele>
<time>2021-10-27T17:38:01.301Z</time>
</trkpt>
<trkpt lat="31.7347200" lon="35.0722700">
<ele>690.159973</ele>
<time>2021-10-27T17:38:01.301Z</time>
</trkpt>
<trkpt lat="31.7347100" lon="35.0722500">
<ele>690.049988</ele>
<time>2021-10-27T17:38:01.301Z</time>
</trkpt>
<trkpt lat="31.7349000" lon="35.0724000">
<ele>689.180054</ele>
<time>2021-10-27T17:38:01.301Z</time>
</trkpt>
<trkpt lat="31.7349700" lon="35.0724300">
<ele>688.519958</ele>
<time>2021-10-27T17:38:01.301Z</time>
</trkpt>
<trkpt lat="31.7350500" lon="35.0724100">
<ele>687.009949</ele>
<time>2021-10-27T17:38:01.302Z</time>
</trkpt>
<trkpt lat="31.7352600" lon="35.0723100">
<ele>681.489990</ele>
<time>2021-10-27T17:38:01.302Z</time>
</trkpt>
<trkpt lat="31.7353900" lon="35.0722100">
<ele>678.640015</ele>
<time>2021-10-27T17:38:01.302Z</time>
</trkpt>
<trkpt lat="31.7354500" lon="35.0721900">
<ele>677.470032</ele>
<time>2021-10-27T17:38:01.302Z</time>
</trkpt>
<trkpt lat="31.7355400" lon="35.0722000">
<ele>675.489990</ele>
<time>2021-10-27T17:38:01.302Z</time>
</trkpt>
<trkpt lat="31.7357400" lon="35.0722700">
<ele>675.260010</ele>
<time>2021-10-27T17:38:01.302Z</time>
</trkpt>
<trkpt lat="31.7358900" lon="35.0723000">
<ele>673.699951</ele>
<time>2021-10-27T17:38:01.302Z</time>
</trkpt>
<trkpt lat="31.7359500" lon="35.0723400">
<ele>671.899963</ele>
<time>2021-10-27T17:38:01.302Z</time>
</trkpt>
<trkpt lat="31.7360200" lon="35.0723800">
<ele>670.070007</ele>
<time>2021-10-27T17:38:01.302Z</time>
</trkpt>
<trkpt lat="31.7361100" lon="35.0724100">
<ele>668.020020</ele>
<time>2021-10-27T17:38:01.302Z</time>
</trkpt>
<trkpt lat="31.7361700" lon="35.0724100">
<ele>666.299988</ele>
<time>2021-10-27T17:38:01.302Z</time>
</trkpt>
<trkpt lat="31.7363500" lon="35.0724100">
<ele>661.099976</ele>
<time>2021-10-27T17:38:01.302Z</time>
</trkpt>
<trkpt lat="31.7364200" lon="35.0723800">
<ele>659.930054</ele>
<time>2021-10-27T17:38:01.302Z</time>
</trkpt>
<trkpt lat="31.7364700" lon="35.0723400">
<ele>659.640015</ele>
<time>2021-10-27T17:38:01.302Z</time>
</trkpt>
<trkpt lat="31.7365600" lon="35.0722000">
<ele>659.059998</ele>
<time>2021-10-27T17:38:01.303Z</time>
</trkpt>
<trkpt lat="31.7366600" lon="35.0719700">
<ele>658.069946</ele>
<time>2021-10-27T17:38:01.303Z</time>
</trkpt>
<trkpt lat="31.7367600" lon="35.0718200">
<ele>657.660034</ele>
<time>2021-10-27T17:38:01.303Z</time>
</trkpt>
<trkpt lat="31.7369400" lon="35.0716600">
<ele>654.129944</ele>
<time>2021-10-27T17:38:01.303Z</time>
</trkpt>
<trkpt lat="31.7371800" lon="35.0715000">
<ele>651.799988</ele>
<time>2021-10-27T17:38:01.303Z</time>
</trkpt>
<trkpt lat="31.7374200" lon="35.0713900">
<ele>645.149963</ele>
<time>2021-10-27T17:38:01.303Z</time>
</trkpt>
<trkpt lat="31.7375300" lon="35.0712900">
<ele>641.390015</ele>
<time>2021-10-27T17:38:01.303Z</time>
</trkpt>
<trkpt lat="31.7377700" lon="35.0709000">
<ele>638.950012</ele>
<time>2021-10-27T17:38:01.303Z</time>
</trkpt>
<trkpt lat="31.7379600" lon="35.0704900">
<ele>637.980042</ele>
<time>2021-10-27T17:38:01.303Z</time>
</trkpt>
<trkpt lat="31.7380000" lon="35.0703400">
<ele>640.039978</ele>
<time>2021-10-27T17:38:01.303Z</time>
</trkpt>
<trkpt lat="31.7380100" lon="35.0698000">
<ele>645.210022</ele>
<time>2021-10-27T17:38:01.303Z</time>
</trkpt>
<trkpt lat="31.7379900" lon="35.0695700">
<ele>645.489990</ele>
<time>2021-10-27T17:38:01.303Z</time>
</trkpt>
<trkpt lat="31.7380100" lon="35.0691900">
<ele>649.309998</ele>
<time>2021-10-27T17:38:01.303Z</time>
</trkpt>
<trkpt lat="31.7380600" lon="35.0690500">
<ele>648.929993</ele>
<time>2021-10-27T17:38:01.303Z</time>
</trkpt>
<trkpt lat="31.7381300" lon="35.0689200">
<ele>648.140015</ele>
<time>2021-10-27T17:38:01.303Z</time>
</trkpt>
<trkpt lat="31.7381800" lon="35.0688700">
<ele>647.570007</ele>
<time>2021-10-27T17:38:01.303Z</time>
</trkpt>
<trkpt lat="31.7382500" lon="35.0688300">
<ele>646.369995</ele>
<time>2021-10-27T17:38:01.303Z</time>
</trkpt>
<trkpt lat="31.7383200" lon="35.0688200">
<ele>645.210022</ele>
<time>2021-10-27T17:38:01.303Z</time>
</trkpt>
<trkpt lat="31.7386700" lon="35.0688600">
<ele>636.479980</ele>
<time>2021-10-27T17:38:01.303Z</time>
</trkpt>
<trkpt lat="31.7390400" lon="35.0689700">
<ele>627.860046</ele>
<time>2021-10-27T17:38:01.303Z</time>
</trkpt>
<trkpt lat="31.7394300" lon="35.0690400">
<ele>618.799988</ele>
<time>2021-10-27T17:38:01.303Z</time>
</trkpt>
<trkpt lat="31.7394300" lon="35.0690400">
<ele>618.799988</ele>
<time>2021-10-27T17:38:01.303Z</time>
</trkpt>
<trkpt lat="31.7395500" lon="35.0690600">
<ele>617.369995</ele>
<time>2021-10-27T17:38:01.303Z</time>
</trkpt>
<trkpt lat="31.7401500" lon="35.0689600">
<ele>616.320007</ele>
<time>2021-10-27T17:38:01.303Z</time>
</trkpt>
<trkpt lat="31.7403500" lon="35.0689500">
<ele>615.229980</ele>
<time>2021-10-27T17:38:01.303Z</time>
</trkpt>
<trkpt lat="31.7405000" lon="35.0689200">
<ele>615.309998</ele>
<time>2021-10-27T17:38:01.303Z</time>
</trkpt>
<trkpt lat="31.7405000" lon="35.0689200">
<ele>615.309998</ele>
<time>2021-10-27T17:38:01.303Z</time>
</trkpt>
<trkpt lat="31.7405000" lon="35.0689200">
<ele>615.309998</ele>
<time>2021-10-27T17:38:01.303Z</time>
</trkpt>
<trkpt lat="31.7410200" lon="35.0688600">
<ele>619.529968</ele>
<time>2021-10-27T17:38:01.303Z</time>
</trkpt>
<trkpt lat="31.7414300" lon="35.0688600">
<ele>628.839966</ele>
<time>2021-10-27T17:38:01.304Z</time>
</trkpt>
<trkpt lat="31.7415500" lon="35.0688600">
<ele>631.159973</ele>
<time>2021-10-27T17:38:01.304Z</time>
</trkpt>
<trkpt lat="31.7418700" lon="35.0689200">
<ele>629.510010</ele>
<time>2021-10-27T17:38:01.304Z</time>
</trkpt>
<trkpt lat="31.7423200" lon="35.0689500">
<ele>620.140015</ele>
<time>2021-10-27T17:38:01.304Z</time>
</trkpt>
<trkpt lat="31.7427300" lon="35.0689700">
<ele>616.369995</ele>
<time>2021-10-27T17:38:01.304Z</time>
</trkpt>
<trkpt lat="31.7430200" lon="35.0690300">
<ele>611.229980</ele>
<time>2021-10-27T17:38:01.304Z</time>
</trkpt>
<trkpt lat="31.7434900" lon="35.0690300">
<ele>610.940002</ele>
<time>2021-10-27T17:38:01.304Z</time>
</trkpt>
<trkpt lat="31.7437000" lon="35.0690100">
<ele>612.010010</ele>
<time>2021-10-27T17:38:01.304Z</time>
</trkpt>
<trkpt lat="31.7439700" lon="35.0689500">
<ele>613.299988</ele>
<time>2021-10-27T17:38:01.304Z</time>
</trkpt>
<trkpt lat="31.7441200" lon="35.0688800">
<ele>613.130005</ele>
<time>2021-10-27T17:38:01.304Z</time>
</trkpt>
<trkpt lat="31.7444900" lon="35.0685800">
<ele>617.900024</ele>
<time>2021-10-27T17:38:01.304Z</time>
</trkpt>
<trkpt lat="31.7449500" lon="35.0681300">
<ele>617.309998</ele>
<time>2021-10-27T17:38:01.304Z</time>
</trkpt>
<trkpt lat="31.7450300" lon="35.0680000">
<ele>617.159973</ele>
<time>2021-10-27T17:38:01.305Z</time>
</trkpt>
<trkpt lat="31.7451500" lon="35.0677600">
<ele>618.700012</ele>
<time>2021-10-27T17:38:01.305Z</time>
</trkpt>
<trkpt lat="31.7452500" lon="35.0674000">
<ele>623.119995</ele>
<time>2021-10-27T17:38:01.305Z</time>
</trkpt>
<trkpt lat="31.7453900" lon="35.0670700">
<ele>620.200012</ele>
<time>2021-10-27T17:38:01.305Z</time>
</trkpt>
<trkpt lat="31.7455900" lon="35.0664000">
<ele>624.369995</ele>
<time>2021-10-27T17:38:01.305Z</time>
</trkpt>
<trkpt lat="31.7456300" lon="35.0662400">
<ele>627.340027</ele>
<time>2021-10-27T17:38:01.305Z</time>
</trkpt>
<trkpt lat="31.7456500" lon="35.0660800">
<ele>630.669983</ele>
<time>2021-10-27T17:38:01.305Z</time>
</trkpt>
<trkpt lat="31.7456400" lon="35.0655800">
<ele>634.819946</ele>
<time>2021-10-27T17:38:01.305Z</time>
</trkpt>
<trkpt lat="31.7456800" lon="35.0653100">
<ele>635.539978</ele>
<time>2021-10-27T17:38:01.305Z</time>
</trkpt>
<trkpt lat="31.7457300" lon="35.0650500">
<ele>636.190002</ele>
<time>2021-10-27T17:38:01.305Z</time>
</trkpt>
<trkpt lat="31.7458700" lon="35.0647400">
<ele>637.520020</ele>
<time>2021-10-27T17:38:01.305Z</time>
</trkpt>
<trkpt lat="31.7459500" lon="35.0646500">
<ele>637.980042</ele>
<time>2021-10-27T17:38:01.305Z</time>
</trkpt>
<trkpt lat="31.7462700" lon="35.0643200">
<ele>638.770020</ele>
<time>2021-10-27T17:38:01.305Z</time>
</trkpt>
<trkpt lat="31.7463300" lon="35.0642400">
<ele>639.420044</ele>
<time>2021-10-27T17:38:01.305Z</time>
</trkpt>
<trkpt lat="31.7465900" lon="35.0636300">
<ele>640.309998</ele>
<time>2021-10-27T17:38:01.305Z</time>
</trkpt>
<trkpt lat="31.7466000" lon="35.0635700">
<ele>640.009949</ele>
<time>2021-10-27T17:38:01.305Z</time>
</trkpt>
<trkpt lat="31.7466100" lon="35.0631700">
<ele>638.629944</ele>
<time>2021-10-27T17:38:01.305Z</time>
</trkpt>
<trkpt lat="31.7466100" lon="35.0629300">
<ele>639.270020</ele>
<time>2021-10-27T17:38:01.306Z</time>
</trkpt>
<trkpt lat="31.7465900" lon="35.0625800">
<ele>644.119995</ele>
<time>2021-10-27T17:38:01.306Z</time>
</trkpt>
<trkpt lat="31.7466000" lon="35.0624100">
<ele>647.099976</ele>
<time>2021-10-27T17:38:01.306Z</time>
</trkpt>
<trkpt lat="31.7466000" lon="35.0623400">
<ele>648.619995</ele>
<time>2021-10-27T17:38:01.306Z</time>
</trkpt>
<trkpt lat="31.7466100" lon="35.0622700">
<ele>649.799988</ele>
<time>2021-10-27T17:38:01.306Z</time>
</trkpt>
<trkpt lat="31.7466900" lon="35.0622100">
<ele>648.559998</ele>
<time>2021-10-27T17:38:01.306Z</time>
</trkpt>
<trkpt lat="31.7472000" lon="35.0619700">
<ele>645.820007</ele>
<time>2021-10-27T17:38:01.306Z</time>
</trkpt>
<trkpt lat="31.7474100" lon="35.0618300">
<ele>643.210022</ele>
<time>2021-10-27T17:38:01.306Z</time>
</trkpt>
<trkpt lat="31.7475600" lon="35.0617000">
<ele>642.210022</ele>
<time>2021-10-27T17:38:01.306Z</time>
</trkpt>
<trkpt lat="31.7476300" lon="35.0615900">
<ele>642.409973</ele>
<time>2021-10-27T17:38:01.306Z</time>
</trkpt>
<trkpt lat="31.7477100" lon="35.0613800">
<ele>645.349976</ele>
<time>2021-10-27T17:38:01.306Z</time>
</trkpt>
<trkpt lat="31.7477900" lon="35.0608400">
<ele>649.620056</ele>
<time>2021-10-27T17:38:01.306Z</time>
</trkpt>
<trkpt lat="31.7478200" lon="35.0607600">
<ele>650.070007</ele>
<time>2021-10-27T17:38:01.306Z</time>
</trkpt>
<trkpt lat="31.7478800" lon="35.0607000">
<ele>649.700012</ele>
<time>2021-10-27T17:38:01.306Z</time>
</trkpt>
<trkpt lat="31.7481800" lon="35.0605500">
<ele>648.119995</ele>
<time>2021-10-27T17:38:01.306Z</time>
</trkpt>
<trkpt lat="31.7482900" lon="35.0604500">
<ele>648.210022</ele>
<time>2021-10-27T17:38:01.306Z</time>
</trkpt>
<trkpt lat="31.7483700" lon="35.0603500">
<ele>648.690002</ele>
<time>2021-10-27T17:38:01.306Z</time>
</trkpt>
<trkpt lat="31.7484400" lon="35.0602200">
<ele>648.799988</ele>
<time>2021-10-27T17:38:01.307Z</time>
</trkpt>
<trkpt lat="31.7484600" lon="35.0601000">
<ele>649.160034</ele>
<time>2021-10-27T17:38:01.307Z</time>
</trkpt>
<trkpt lat="31.7484800" lon="35.0598700">
<ele>649.329956</ele>
<time>2021-10-27T17:38:01.307Z</time>
</trkpt>
<trkpt lat="31.7485500" lon="35.0595500">
<ele>648.779968</ele>
<time>2021-10-27T17:38:01.307Z</time>
</trkpt>
<trkpt lat="31.7485600" lon="35.0592600">
<ele>653.029968</ele>
<time>2021-10-27T17:38:01.307Z</time>
</trkpt>
<trkpt lat="31.7485600" lon="35.0588800">
<ele>661.030029</ele>
<time>2021-10-27T17:38:01.307Z</time>
</trkpt>
<trkpt lat="31.7485700" lon="35.0587200">
<ele>662.830017</ele>
<time>2021-10-27T17:38:01.307Z</time>
</trkpt>
<trkpt lat="31.7485800" lon="35.0586400">
<ele>663.549988</ele>
<time>2021-10-27T17:38:01.307Z</time>
</trkpt>
<trkpt lat="31.7486000" lon="35.0585900">
<ele>663.469971</ele>
<time>2021-10-27T17:38:01.307Z</time>
</trkpt>
<trkpt lat="31.7486500" lon="35.0585300">
<ele>662.080017</ele>
<time>2021-10-27T17:38:01.307Z</time>
</trkpt>
<trkpt lat="31.7488300" lon="35.0584600">
<ele>655.849976</ele>
<time>2021-10-27T17:38:01.307Z</time>
</trkpt>
<trkpt lat="31.7493900" lon="35.0583700">
<ele>641.200012</ele>
<time>2021-10-27T17:38:01.307Z</time>
</trkpt>
<trkpt lat="31.7495000" lon="35.0583200">
<ele>641.229980</ele>
<time>2021-10-27T17:38:01.307Z</time>
</trkpt>
<trkpt lat="31.7498400" lon="35.0581200">
<ele>637.949951</ele>
<time>2021-10-27T17:38:01.307Z</time>
</trkpt>
<trkpt lat="31.7499600" lon="35.0580300">
<ele>637.559998</ele>
<time>2021-10-27T17:38:01.307Z</time>
</trkpt>
<trkpt lat="31.7502300" lon="35.0577700">
<ele>645.770020</ele>
<time>2021-10-27T17:38:01.307Z</time>
</trkpt>
<trkpt lat="31.7503100" lon="35.0576600">
<ele>646.490051</ele>
<time>2021-10-27T17:38:01.307Z</time>
</trkpt>
<trkpt lat="31.7503400" lon="35.0575200">
<ele>647.619995</ele>
<time>2021-10-27T17:38:01.307Z</time>
</trkpt>
<trkpt lat="31.7503400" lon="35.0569700">
<ele>650.679993</ele>
<time>2021-10-27T17:38:01.307Z</time>
</trkpt>
<trkpt lat="31.7503200" lon="35.0568500">
<ele>649.679993</ele>
<time>2021-10-27T17:38:01.307Z</time>
</trkpt>
<trkpt lat="31.7502700" lon="35.0567000">
<ele>648.699951</ele>
<time>2021-10-27T17:38:01.308Z</time>
</trkpt>
<trkpt lat="31.7502100" lon="35.0566400">
<ele>649.399963</ele>
<time>2021-10-27T17:38:01.308Z</time>
</trkpt>
<trkpt lat="31.7501200" lon="35.0564900">
<ele>649.089966</ele>
<time>2021-10-27T17:38:01.308Z</time>
</trkpt>
<trkpt lat="31.7498200" lon="35.0562000">
<ele>656.330017</ele>
<time>2021-10-27T17:38:01.308Z</time>
</trkpt>
<trkpt lat="31.7494200" lon="35.0557100">
<ele>656.529968</ele>
<time>2021-10-27T17:38:01.308Z</time>
</trkpt>
<trkpt lat="31.7491700" lon="35.0555400">
<ele>657.460022</ele>
<time>2021-10-27T17:38:01.308Z</time>
</trkpt>
<trkpt lat="31.7488700" lon="35.0554000">
<ele>662.520020</ele>
<time>2021-10-27T17:38:01.308Z</time>
</trkpt>
<trkpt lat="31.7487900" lon="35.0553400">
<ele>664.500000</ele>
<time>2021-10-27T17:38:01.308Z</time>
</trkpt>
<trkpt lat="31.7487600" lon="35.0552500">
<ele>663.880005</ele>
<time>2021-10-27T17:38:01.308Z</time>
</trkpt>
<trkpt lat="31.7487500" lon="35.0551600">
<ele>663.229980</ele>
<time>2021-10-27T17:38:01.308Z</time>
</trkpt>
<trkpt lat="31.7487300" lon="35.0547100">
<ele>658.630005</ele>
<time>2021-10-27T17:38:01.308Z</time>
</trkpt>
<trkpt lat="31.7487300" lon="35.0542000">
<ele>657.099976</ele>
<time>2021-10-27T17:38:01.308Z</time>
</trkpt>
<trkpt lat="31.7487200" lon="35.0540500">
<ele>656.630005</ele>
<time>2021-10-27T17:38:01.308Z</time>
</trkpt>
<trkpt lat="31.7486900" lon="35.0537400">
<ele>656.059998</ele>
<time>2021-10-27T17:38:01.308Z</time>
</trkpt>
<trkpt lat="31.7485700" lon="35.0532400">
<ele>657.259949</ele>
<time>2021-10-27T17:38:01.308Z</time>
</trkpt>
<trkpt lat="31.7485000" lon="35.0529000">
<ele>654.869995</ele>
<time>2021-10-27T17:38:01.308Z</time>
</trkpt>
<trkpt lat="31.7484400" lon="35.0521500">
<ele>651.669983</ele>
<time>2021-10-27T17:38:01.308Z</time>
</trkpt>
<trkpt lat="31.7484200" lon="35.0515900">
<ele>648.569946</ele>
<time>2021-10-27T17:38:01.308Z</time>
</trkpt>
<trkpt lat="31.7483500" lon="35.0510800">
<ele>649.820007</ele>
<time>2021-10-27T17:38:01.308Z</time>
</trkpt>
<trkpt lat="31.7483400" lon="35.0508600">
<ele>648.810059</ele>
<time>2021-10-27T17:38:01.308Z</time>
</trkpt>
<trkpt lat="31.7483400" lon="35.0506600">
<ele>647.400024</ele>
<time>2021-10-27T17:38:01.308Z</time>
</trkpt>
<trkpt lat="31.7483400" lon="35.0505100">
<ele>646.340027</ele>
<time>2021-10-27T17:38:01.308Z</time>
</trkpt>
<trkpt lat="31.7484800" lon="35.0496400">
<ele>638.010010</ele>
<time>2021-10-27T17:38:01.308Z</time>
</trkpt>
<trkpt lat="31.7485200" lon="35.0492700">
<ele>637.139954</ele>
<time>2021-10-27T17:38:01.308Z</time>
</trkpt>
<trkpt lat="31.7485200" lon="35.0491500">
<ele>637.679993</ele>
<time>2021-10-27T17:38:01.308Z</time>
</trkpt>
<trkpt lat="31.7484400" lon="35.0482900">
<ele>636.910034</ele>
<time>2021-10-27T17:38:01.308Z</time>
</trkpt>
<trkpt lat="31.7484400" lon="35.0478400">
<ele>632.299988</ele>
<time>2021-10-27T17:38:01.308Z</time>
</trkpt>
<trkpt lat="31.7484500" lon="35.0475800">
<ele>632.610046</ele>
<time>2021-10-27T17:38:01.308Z</time>
</trkpt>
<trkpt lat="31.7484500" lon="35.0471600">
<ele>634.650024</ele>
<time>2021-10-27T17:38:01.308Z</time>
</trkpt>
<trkpt lat="31.7484700" lon="35.0468900">
<ele>634.219971</ele>
<time>2021-10-27T17:38:01.308Z</time>
</trkpt>
<trkpt lat="31.7484800" lon="35.0466500">
<ele>635.040039</ele>
<time>2021-10-27T17:38:01.308Z</time>
</trkpt>
<trkpt lat="31.7484900" lon="35.0461600">
<ele>638.649963</ele>
<time>2021-10-27T17:38:01.308Z</time>
</trkpt>
<trkpt lat="31.7485000" lon="35.0460900">
<ele>639.229980</ele>
<time>2021-10-27T17:38:01.308Z</time>
</trkpt>
<trkpt lat="31.7484800" lon="35.0460200">
<ele>639.210022</ele>
<time>2021-10-27T17:38:01.308Z</time>
</trkpt>
<trkpt lat="31.7481100" lon="35.0460600">
<ele>637.529968</ele>
<time>2021-10-27T17:38:01.308Z</time>
</trkpt>
<trkpt lat="31.7479300" lon="35.0455300">
<ele>640.049988</ele>
<time>2021-10-27T17:38:01.308Z</time>
</trkpt>
<trkpt lat="31.7479100" lon="35.0451700">
<ele>637.880005</ele>
<time>2021-10-27T17:38:01.308Z</time>
</trkpt>
<trkpt lat="31.7479200" lon="35.0450000">
<ele>635.539978</ele>
<time>2021-10-27T17:38:01.308Z</time>
</trkpt>
<trkpt lat="31.7478800" lon="35.0448900">
<ele>633.479980</ele>
<time>2021-10-27T17:38:01.308Z</time>
</trkpt>
<trkpt lat="31.7477400" lon="35.0447600">
<ele>631.510010</ele>
<time>2021-10-27T17:38:01.310Z</time>
</trkpt>
<trkpt lat="31.7472400" lon="35.0442100">
<ele>632.229980</ele>
<time>2021-10-27T17:38:01.310Z</time>
</trkpt>
<trkpt lat="31.7471700" lon="35.0441700">
<ele>631.670044</ele>
<time>2021-10-27T17:38:01.310Z</time>
</trkpt>
<trkpt lat="31.7470600" lon="35.0441500">
<ele>630.580017</ele>
<time>2021-10-27T17:38:01.310Z</time>
</trkpt>
<trkpt lat="31.7468500" lon="35.0441400">
<ele>627.360046</ele>
<time>2021-10-27T17:38:01.310Z</time>
</trkpt>
<trkpt lat="31.7464400" lon="35.0441700">
<ele>618.169983</ele>
<time>2021-10-27T17:38:01.310Z</time>
</trkpt>
<trkpt lat="31.7463700" lon="35.0441600">
<ele>616.609985</ele>
<time>2021-10-27T17:38:01.310Z</time>
</trkpt>
<trkpt lat="31.7463100" lon="35.0441500">
<ele>615.480042</ele>
<time>2021-10-27T17:38:01.310Z</time>
</trkpt>
<trkpt lat="31.7462800" lon="35.0441000">
<ele>614.650024</ele>
<time>2021-10-27T17:38:01.310Z</time>
</trkpt>
<trkpt lat="31.7462800" lon="35.0440200">
<ele>614.190002</ele>
<time>2021-10-27T17:38:01.310Z</time>
</trkpt>
<trkpt lat="31.7462800" lon="35.0436600">
<ele>613.109985</ele>
<time>2021-10-27T17:38:01.310Z</time>
</trkpt>
<trkpt lat="31.7462900" lon="35.0433600">
<ele>611.729980</ele>
<time>2021-10-27T17:38:01.310Z</time>
</trkpt>
<trkpt lat="31.7462900" lon="35.0432000">
<ele>611.270020</ele>
<time>2021-10-27T17:38:01.310Z</time>
</trkpt>
<trkpt lat="31.7462800" lon="35.0427900">
<ele>608.160034</ele>
<time>2021-10-27T17:38:01.310Z</time>
</trkpt>
<trkpt lat="31.7462800" lon="35.0426100">
<ele>604.289978</ele>
<time>2021-10-27T17:38:01.310Z</time>
</trkpt>
<trkpt lat="31.7462800" lon="35.0424600">
<ele>601.340027</ele>
<time>2021-10-27T17:38:01.310Z</time>
</trkpt>
<trkpt lat="31.7462900" lon="35.0423700">
<ele>600.359985</ele>
<time>2021-10-27T17:38:01.310Z</time>
</trkpt>
<trkpt lat="31.7463900" lon="35.0420400">
<ele>597.390015</ele>
<time>2021-10-27T17:38:01.310Z</time>
</trkpt>
<trkpt lat="31.7466200" lon="35.0416600">
<ele>595.419983</ele>
<time>2021-10-27T17:38:01.310Z</time>
</trkpt>
<trkpt lat="31.7471300" lon="35.0409600">
<ele>597.219971</ele>
<time>2021-10-27T17:38:01.310Z</time>
</trkpt>
<trkpt lat="31.7472300" lon="35.0407200">
<ele>595.849976</ele>
<time>2021-10-27T17:38:01.310Z</time>
</trkpt>
<trkpt lat="31.7472500" lon="35.0406600">
<ele>595.450012</ele>
<time>2021-10-27T17:38:01.311Z</time>
</trkpt>
<trkpt lat="31.7473900" lon="35.0405200">
<ele>596.289978</ele>
<time>2021-10-27T17:38:01.311Z</time>
</trkpt>
<trkpt lat="31.7474400" lon="35.0404200">
<ele>596.650024</ele>
<time>2021-10-27T17:38:01.311Z</time>
</trkpt>
<trkpt lat="31.7474600" lon="35.0403000">
<ele>596.500000</ele>
<time>2021-10-27T17:38:01.311Z</time>
</trkpt>
<trkpt lat="31.7474000" lon="35.0397900">
<ele>590.090027</ele>
<time>2021-10-27T17:38:01.311Z</time>
</trkpt>
<trkpt lat="31.7474000" lon="35.0396300">
<ele>588.059998</ele>
<time>2021-10-27T17:38:01.311Z</time>
</trkpt>
<trkpt lat="31.7474200" lon="35.0395000">
<ele>587.250000</ele>
<time>2021-10-27T17:38:01.311Z</time>
</trkpt>
<trkpt lat="31.7472800" lon="35.0395100">
<ele>585.890015</ele>
<time>2021-10-27T17:38:01.311Z</time>
</trkpt>
<trkpt lat="31.7466500" lon="35.0395000">
<ele>578.239990</ele>
<time>2021-10-27T17:38:01.311Z</time>
</trkpt>
<trkpt lat="31.7461700" lon="35.0395700">
<ele>575.000000</ele>
<time>2021-10-27T17:38:01.311Z</time>
</trkpt>
<trkpt lat="31.7457400" lon="35.0396000">
<ele>577.010010</ele>
<time>2021-10-27T17:38:01.311Z</time>
</trkpt>
<trkpt lat="31.7456000" lon="35.0396100">
<ele>576.520020</ele>
<time>2021-10-27T17:38:01.311Z</time>
</trkpt>
<trkpt lat="31.7452100" lon="35.0396000">
<ele>574.279968</ele>
<time>2021-10-27T17:38:01.311Z</time>
</trkpt>
<trkpt lat="31.7450900" lon="35.0396000">
<ele>573.839966</ele>
<time>2021-10-27T17:38:01.311Z</time>
</trkpt>
<trkpt lat="31.7449400" lon="35.0396100">
<ele>573.019958</ele>
<time>2021-10-27T17:38:01.311Z</time>
</trkpt>
<trkpt lat="31.7446700" lon="35.0395900">
<ele>572.150024</ele>
<time>2021-10-27T17:38:01.311Z</time>
</trkpt>
<trkpt lat="31.7440000" lon="35.0393300">
<ele>575.799988</ele>
<time>2021-10-27T17:38:01.311Z</time>
</trkpt>
<trkpt lat="31.7437700" lon="35.0392300">
<ele>576.510010</ele>
<time>2021-10-27T17:38:01.311Z</time>
</trkpt>
<trkpt lat="31.7431200" lon="35.0391000">
<ele>569.940002</ele>
<time>2021-10-27T17:38:01.311Z</time>
</trkpt>
<trkpt lat="31.7426000" lon="35.0388800">
<ele>562.690002</ele>
<time>2021-10-27T17:38:01.311Z</time>
</trkpt>
<trkpt lat="31.7423000" lon="35.0388300">
<ele>558.089966</ele>
<time>2021-10-27T17:38:01.311Z</time>
</trkpt>
<trkpt lat="31.7419500" lon="35.0387400">
<ele>556.709961</ele>
<time>2021-10-27T17:38:01.311Z</time>
</trkpt>
<trkpt lat="31.7416200" lon="35.0385700">
<ele>554.979980</ele>
<time>2021-10-27T17:38:01.311Z</time>
</trkpt>
<trkpt lat="31.7414500" lon="35.0385300">
<ele>552.980042</ele>
<time>2021-10-27T17:38:01.311Z</time>
</trkpt>
<trkpt lat="31.7413200" lon="35.0384700">
<ele>553.309998</ele>
<time>2021-10-27T17:38:01.311Z</time>
</trkpt>
<trkpt lat="31.7411500" lon="35.0383800">
<ele>551.309998</ele>
<time>2021-10-27T17:38:01.311Z</time>
</trkpt>
<trkpt lat="31.7410400" lon="35.0382800">
<ele>550.789978</ele>
<time>2021-10-27T17:38:01.311Z</time>
</trkpt>
<trkpt lat="31.7408000" lon="35.0380200">
<ele>550.260010</ele>
<time>2021-10-27T17:38:01.311Z</time>
</trkpt>
<trkpt lat="31.7407400" lon="35.0379200">
<ele>550.989990</ele>
<time>2021-10-27T17:38:01.311Z</time>
</trkpt>
<trkpt lat="31.7406400" lon="35.0377300">
<ele>551.849976</ele>
<time>2021-10-27T17:38:01.311Z</time>
</trkpt>
<trkpt lat="31.7405300" lon="35.0375400">
<ele>548.059998</ele>
<time>2021-10-27T17:38:01.311Z</time>
</trkpt>
<trkpt lat="31.7405000" lon="35.0374600">
<ele>546.250000</ele>
<time>2021-10-27T17:38:01.312Z</time>
</trkpt>
<trkpt lat="31.7404900" lon="35.0374000">
<ele>545.520020</ele>
<time>2021-10-27T17:38:01.312Z</time>
</trkpt>
<trkpt lat="31.7404900" lon="35.0370600">
<ele>544.779968</ele>
<time>2021-10-27T17:38:01.312Z</time>
</trkpt>
<trkpt lat="31.7404800" lon="35.0369400">
<ele>545.210022</ele>
<time>2021-10-27T17:38:01.312Z</time>
</trkpt>
<trkpt lat="31.7403000" lon="35.0365000">
<ele>545.020020</ele>
<time>2021-10-27T17:38:01.312Z</time>
</trkpt>
<trkpt lat="31.7402600" lon="35.0363000">
<ele>545.539978</ele>
<time>2021-10-27T17:38:01.312Z</time>
</trkpt>
<trkpt lat="31.7402400" lon="35.0362100">
<ele>545.940002</ele>
<time>2021-10-27T17:38:01.312Z</time>
</trkpt>
<trkpt lat="31.7402600" lon="35.0361100">
<ele>547.500000</ele>
<time>2021-10-27T17:38:01.312Z</time>
</trkpt>
<trkpt lat="31.7402700" lon="35.0358000">
<ele>550.109985</ele>
<time>2021-10-27T17:38:01.312Z</time>
</trkpt>
<trkpt lat="31.7403400" lon="35.0356100">
<ele>549.130005</ele>
<time>2021-10-27T17:38:01.312Z</time>
</trkpt>
<trkpt lat="31.7403700" lon="35.0354600">
<ele>548.289978</ele>
<time>2021-10-27T17:38:01.312Z</time>
</trkpt>
<trkpt lat="31.7403800" lon="35.0347400">
<ele>544.659973</ele>
<time>2021-10-27T17:38:01.312Z</time>
</trkpt>
<trkpt lat="31.7403900" lon="35.0345900">
<ele>545.130005</ele>
<time>2021-10-27T17:38:01.312Z</time>
</trkpt>
<trkpt lat="31.7403900" lon="35.0344700">
<ele>545.210022</ele>
<time>2021-10-27T17:38:01.312Z</time>
</trkpt>
<trkpt lat="31.7403800" lon="35.0343600">
<ele>545.780029</ele>
<time>2021-10-27T17:38:01.312Z</time>
</trkpt>
<trkpt lat="31.7403400" lon="35.0341100">
<ele>546.190002</ele>
<time>2021-10-27T17:38:01.312Z</time>
</trkpt>
<trkpt lat="31.7403200" lon="35.0338000">
<ele>544.779968</ele>
<time>2021-10-27T17:38:01.312Z</time>
</trkpt>
<trkpt lat="31.7401500" lon="35.0334200">
<ele>541.710022</ele>
<time>2021-10-27T17:38:01.312Z</time>
</trkpt>
<trkpt lat="31.7401400" lon="35.0333600">
<ele>541.899963</ele>
<time>2021-10-27T17:38:01.312Z</time>
</trkpt>
<trkpt lat="31.7401400" lon="35.0332900">
<ele>542.080017</ele>
<time>2021-10-27T17:38:01.312Z</time>
</trkpt>
<trkpt lat="31.7401700" lon="35.0329200">
<ele>541.890015</ele>
<time>2021-10-27T17:38:01.312Z</time>
</trkpt>
<trkpt lat="31.7403500" lon="35.0321000">
<ele>541.460022</ele>
<time>2021-10-27T17:38:01.312Z</time>
</trkpt>
<trkpt lat="31.7403700" lon="35.0319100">
<ele>539.500000</ele>
<time>2021-10-27T17:38:01.312Z</time>
</trkpt>
<trkpt lat="31.7403800" lon="35.0316100">
<ele>535.700012</ele>
<time>2021-10-27T17:38:01.312Z</time>
</trkpt>
<trkpt lat="31.7403900" lon="35.0313700">
<ele>533.989990</ele>
<time>2021-10-27T17:38:01.313Z</time>
</trkpt>
<trkpt lat="31.7405000" lon="35.0309900">
<ele>531.690002</ele>
<time>2021-10-27T17:38:01.313Z</time>
</trkpt>
<trkpt lat="31.7405700" lon="35.0306100">
<ele>529.250000</ele>
<time>2021-10-27T17:38:01.313Z</time>
</trkpt>
<trkpt lat="31.7406000" lon="35.0305400">
<ele>528.459961</ele>
<time>2021-10-27T17:38:01.313Z</time>
</trkpt>
<trkpt lat="31.7406900" lon="35.0304800">
<ele>527.280029</ele>
<time>2021-10-27T17:38:01.313Z</time>
</trkpt>
<trkpt lat="31.7407400" lon="35.0304700">
<ele>526.700012</ele>
<time>2021-10-27T17:38:01.313Z</time>
</trkpt>
<trkpt lat="31.7409200" lon="35.0304500">
<ele>523.820007</ele>
<time>2021-10-27T17:38:01.313Z</time>
</trkpt>
<trkpt lat="31.7409800" lon="35.0304500">
<ele>522.580017</ele>
<time>2021-10-27T17:38:01.313Z</time>
</trkpt>
<trkpt lat="31.7413900" lon="35.0307100">
<ele>517.640015</ele>
<time>2021-10-27T17:38:01.313Z</time>
</trkpt>
<trkpt lat="31.7414700" lon="35.0307400">
<ele>516.340027</ele>
<time>2021-10-27T17:38:01.313Z</time>
</trkpt>
<trkpt lat="31.7419500" lon="35.0307800">
<ele>507.959991</ele>
<time>2021-10-27T17:38:01.313Z</time>
</trkpt>
<trkpt lat="31.7421500" lon="35.0308500">
<ele>505.389984</ele>
<time>2021-10-27T17:38:01.313Z</time>
</trkpt>
<trkpt lat="31.7419800" lon="35.0302300">
<ele>500.230011</ele>
<time>2021-10-27T17:38:01.313Z</time>
</trkpt>
<trkpt lat="31.7419400" lon="35.0300700">
<ele>499.309998</ele>
<time>2021-10-27T17:38:01.313Z</time>
</trkpt>
<trkpt lat="31.7415400" lon="35.0297900">
<ele>506.629974</ele>
<time>2021-10-27T17:38:01.313Z</time>
</trkpt>
<trkpt lat="31.7414800" lon="35.0297300">
<ele>508.389984</ele>
<time>2021-10-27T17:38:01.313Z</time>
</trkpt>
<trkpt lat="31.7412700" lon="35.0292000">
<ele>510.049988</ele>
<time>2021-10-27T17:38:01.313Z</time>
</trkpt>
<trkpt lat="31.7409800" lon="35.0287500">
<ele>507.980011</ele>
<time>2021-10-27T17:38:01.313Z</time>
</trkpt>
<trkpt lat="31.7408200" lon="35.0285600">
<ele>508.599976</ele>
<time>2021-10-27T17:38:01.313Z</time>
</trkpt>
<trkpt lat="31.7407800" lon="35.0284200">
<ele>505.029999</ele>
<time>2021-10-27T17:38:01.313Z</time>
</trkpt>
<trkpt lat="31.7407700" lon="35.0282500">
<ele>501.559998</ele>
<time>2021-10-27T17:38:01.313Z</time>
</trkpt>
<trkpt lat="31.7407800" lon="35.0279800">
<ele>498.579987</ele>
<time>2021-10-27T17:38:01.313Z</time>
</trkpt>
<trkpt lat="31.7407400" lon="35.0276600">
<ele>496.739990</ele>
<time>2021-10-27T17:38:01.313Z</time>
</trkpt>
<trkpt lat="31.7407500" lon="35.0275400">
<ele>495.329987</ele>
<time>2021-10-27T17:38:01.313Z</time>
</trkpt>
<trkpt lat="31.7408000" lon="35.0272600">
<ele>491.660004</ele>
<time>2021-10-27T17:38:01.314Z</time>
</trkpt>
<trkpt lat="31.7408300" lon="35.0271000">
<ele>490.149994</ele>
<time>2021-10-27T17:38:01.314Z</time>
</trkpt>
<trkpt lat="31.7408400" lon="35.0270200">
<ele>489.399994</ele>
<time>2021-10-27T17:38:01.314Z</time>
</trkpt>
<trkpt lat="31.7407900" lon="35.0265200">
<ele>487.100006</ele>
<time>2021-10-27T17:38:01.314Z</time>
</trkpt>
<trkpt lat="31.7407100" lon="35.0263800">
<ele>487.679993</ele>
<time>2021-10-27T17:38:01.314Z</time>
</trkpt>
<trkpt lat="31.7405600" lon="35.0261300">
<ele>488.040009</ele>
<time>2021-10-27T17:38:01.314Z</time>
</trkpt>
<trkpt lat="31.7404900" lon="35.0259600">
<ele>486.049988</ele>
<time>2021-10-27T17:38:01.314Z</time>
</trkpt>
<trkpt lat="31.7404700" lon="35.0258700">
<ele>485.260010</ele>
<time>2021-10-27T17:38:01.314Z</time>
</trkpt>
<trkpt lat="31.7404300" lon="35.0252800">
<ele>483.720032</ele>
<time>2021-10-27T17:38:01.314Z</time>
</trkpt>
<trkpt lat="31.7404100" lon="35.0251300">
<ele>482.799988</ele>
<time>2021-10-27T17:38:01.314Z</time>
</trkpt>
<trkpt lat="31.7404000" lon="35.0246200">
<ele>479.550018</ele>
<time>2021-10-27T17:38:01.314Z</time>
</trkpt>
<trkpt lat="31.7403800" lon="35.0245100">
<ele>479.659973</ele>
<time>2021-10-27T17:38:01.314Z</time>
</trkpt>
<trkpt lat="31.7403200" lon="35.0243900">
<ele>480.710022</ele>
<time>2021-10-27T17:38:01.314Z</time>
</trkpt>
<trkpt lat="31.7400900" lon="35.0240900">
<ele>483.039978</ele>
<time>2021-10-27T17:38:01.314Z</time>
</trkpt>
<trkpt lat="31.7397800" lon="35.0236100">
<ele>488.949982</ele>
<time>2021-10-27T17:38:01.314Z</time>
</trkpt>
<trkpt lat="31.7396600" lon="35.0233400">
<ele>488.920013</ele>
<time>2021-10-27T17:38:01.314Z</time>
</trkpt>
<trkpt lat="31.7393200" lon="35.0230500">
<ele>491.070007</ele>
<time>2021-10-27T17:38:01.314Z</time>
</trkpt>
<trkpt lat="31.7393000" lon="35.0229200">
<ele>490.239990</ele>
<time>2021-10-27T17:38:01.314Z</time>
</trkpt>
<trkpt lat="31.7393200" lon="35.0225700">
<ele>486.739990</ele>
<time>2021-10-27T17:38:01.314Z</time>
</trkpt>
<trkpt lat="31.7393000" lon="35.0224500">
<ele>485.550018</ele>
<time>2021-10-27T17:38:01.314Z</time>
</trkpt>
<trkpt lat="31.7392600" lon="35.0223300">
<ele>485.219971</ele>
<time>2021-10-27T17:38:01.314Z</time>
</trkpt>
<trkpt lat="31.7391900" lon="35.0222300">
<ele>486.370026</ele>
<time>2021-10-27T17:38:01.314Z</time>
</trkpt>
<trkpt lat="31.7388500" lon="35.0221100">
<ele>484.889984</ele>
<time>2021-10-27T17:38:01.314Z</time>
</trkpt>
<trkpt lat="31.7388300" lon="35.0219800">
<ele>483.429993</ele>
<time>2021-10-27T17:38:01.314Z</time>
</trkpt>
<trkpt lat="31.7388400" lon="35.0216700">
<ele>484.459991</ele>
<time>2021-10-27T17:38:01.314Z</time>
</trkpt>
<trkpt lat="31.7388200" lon="35.0216100">
<ele>483.899994</ele>
<time>2021-10-27T17:38:01.315Z</time>
</trkpt>
<trkpt lat="31.7387900" lon="35.0215600">
<ele>483.299988</ele>
<time>2021-10-27T17:38:01.315Z</time>
</trkpt>
<trkpt lat="31.7387600" lon="35.0215200">
<ele>482.799988</ele>
<time>2021-10-27T17:38:01.315Z</time>
</trkpt>
<trkpt lat="31.7386600" lon="35.0214800">
<ele>481.740021</ele>
<time>2021-10-27T17:38:01.315Z</time>
</trkpt>
<trkpt lat="31.7384500" lon="35.0214400">
<ele>477.120026</ele>
<time>2021-10-27T17:38:01.315Z</time>
</trkpt>
<trkpt lat="31.7382700" lon="35.0213600">
<ele>473.079987</ele>
<time>2021-10-27T17:38:01.315Z</time>
</trkpt>
<trkpt lat="31.7377900" lon="35.0210800">
<ele>467.989990</ele>
<time>2021-10-27T17:38:01.315Z</time>
</trkpt>
<trkpt lat="31.7375000" lon="35.0210000">
<ele>469.200012</ele>
<time>2021-10-27T17:38:01.315Z</time>
</trkpt>
<trkpt lat="31.7374100" lon="35.0208900">
<ele>468.269989</ele>
<time>2021-10-27T17:38:01.315Z</time>
</trkpt>
<trkpt lat="31.7373800" lon="35.0207800">
<ele>468.319977</ele>
<time>2021-10-27T17:38:01.315Z</time>
</trkpt>
<trkpt lat="31.7373700" lon="35.0206300">
<ele>468.080017</ele>
<time>2021-10-27T17:38:01.315Z</time>
</trkpt>
<trkpt lat="31.7373500" lon="35.0205000">
<ele>466.880005</ele>
<time>2021-10-27T17:38:01.315Z</time>
</trkpt>
<trkpt lat="31.7373100" lon="35.0204500">
<ele>466.089996</ele>
<time>2021-10-27T17:38:01.315Z</time>
</trkpt>
<trkpt lat="31.7372500" lon="35.0204100">
<ele>465.659973</ele>
<time>2021-10-27T17:38:01.315Z</time>
</trkpt>
<trkpt lat="31.7371500" lon="35.0203700">
<ele>464.209991</ele>
<time>2021-10-27T17:38:01.315Z</time>
</trkpt>
<trkpt lat="31.7370300" lon="35.0203600">
<ele>462.700012</ele>
<time>2021-10-27T17:38:01.315Z</time>
</trkpt>
<trkpt lat="31.7369800" lon="35.0203300">
<ele>461.509979</ele>
<time>2021-10-27T17:38:01.315Z</time>
</trkpt>
<trkpt lat="31.7369700" lon="35.0202800">
<ele>460.320007</ele>
<time>2021-10-27T17:38:01.315Z</time>
</trkpt>
<trkpt lat="31.7369700" lon="35.0202200">
<ele>459.309998</ele>
<time>2021-10-27T17:38:01.315Z</time>
</trkpt>
<trkpt lat="31.7369900" lon="35.0201700">
<ele>458.489990</ele>
<time>2021-10-27T17:38:01.315Z</time>
</trkpt>
<trkpt lat="31.7372900" lon="35.0199600">
<ele>450.509979</ele>
<time>2021-10-27T17:38:01.315Z</time>
</trkpt>
<trkpt lat="31.7376600" lon="35.0198500">
<ele>447.690002</ele>
<time>2021-10-27T17:38:01.315Z</time>
</trkpt>
<trkpt lat="31.7382500" lon="35.0195700">
<ele>439.360016</ele>
<time>2021-10-27T17:38:01.315Z</time>
</trkpt>
<trkpt lat="31.7384300" lon="35.0194800">
<ele>438.750000</ele>
<time>2021-10-27T17:38:01.316Z</time>
</trkpt>
<trkpt lat="31.7387000" lon="35.0192800">
<ele>437.730011</ele>
<time>2021-10-27T17:38:01.316Z</time>
</trkpt>
<trkpt lat="31.7389600" lon="35.0191500">
<ele>437.839996</ele>
<time>2021-10-27T17:38:01.316Z</time>
</trkpt>
<trkpt lat="31.7390200" lon="35.0190800">
<ele>437.209991</ele>
<time>2021-10-27T17:38:01.316Z</time>
</trkpt>
<trkpt lat="31.7390500" lon="35.0190200">
<ele>436.719971</ele>
<time>2021-10-27T17:38:01.316Z</time>
</trkpt>
<trkpt lat="31.7390500" lon="35.0189300">
<ele>435.940002</ele>
<time>2021-10-27T17:38:01.316Z</time>
</trkpt>
<trkpt lat="31.7390500" lon="35.0185200">
<ele>433.920013</ele>
<time>2021-10-27T17:38:01.316Z</time>
</trkpt>
<trkpt lat="31.7390400" lon="35.0184100">
<ele>433.100006</ele>
<time>2021-10-27T17:38:01.316Z</time>
</trkpt>
<trkpt lat="31.7390000" lon="35.0183700">
<ele>432.660004</ele>
<time>2021-10-27T17:38:01.316Z</time>
</trkpt>
<trkpt lat="31.7388100" lon="35.0183200">
<ele>430.240021</ele>
<time>2021-10-27T17:38:01.316Z</time>
</trkpt>
<trkpt lat="31.7387900" lon="35.0182500">
<ele>428.119995</ele>
<time>2021-10-27T17:38:01.316Z</time>
</trkpt>
<trkpt lat="31.7387900" lon="35.0181800">
<ele>426.359985</ele>
<time>2021-10-27T17:38:01.316Z</time>
</trkpt>
<trkpt lat="31.7388300" lon="35.0180200">
<ele>422.889984</ele>
<time>2021-10-27T17:38:01.316Z</time>
</trkpt>
<trkpt lat="31.7388800" lon="35.0179200">
<ele>420.919983</ele>
<time>2021-10-27T17:38:01.316Z</time>
</trkpt>
<trkpt lat="31.7390700" lon="35.0177600">
<ele>419.920013</ele>
<time>2021-10-27T17:38:01.316Z</time>
</trkpt>
<trkpt lat="31.7392600" lon="35.0176700">
<ele>419.129974</ele>
<time>2021-10-27T17:38:01.316Z</time>
</trkpt>
<trkpt lat="31.7392800" lon="35.0176200">
<ele>418.009979</ele>
<time>2021-10-27T17:38:01.316Z</time>
</trkpt>
<trkpt lat="31.7392900" lon="35.0175700">
<ele>416.959991</ele>
<time>2021-10-27T17:38:01.316Z</time>
</trkpt>
<trkpt lat="31.7392900" lon="35.0175000">
<ele>415.559998</ele>
<time>2021-10-27T17:38:01.316Z</time>
</trkpt>
<trkpt lat="31.7392600" lon="35.0174400">
<ele>414.220001</ele>
<time>2021-10-27T17:38:01.316Z</time>
</trkpt>
<trkpt lat="31.7390200" lon="35.0172400">
<ele>408.849976</ele>
<time>2021-10-27T17:38:01.316Z</time>
</trkpt>
<trkpt lat="31.7389900" lon="35.0171500">
<ele>406.970001</ele>
<time>2021-10-27T17:38:01.316Z</time>
</trkpt>
<trkpt lat="31.7389900" lon="35.0170700">
<ele>405.420013</ele>
<time>2021-10-27T17:38:01.316Z</time>
</trkpt>
<trkpt lat="31.7390100" lon="35.0170000">
<ele>404.090027</ele>
<time>2021-10-27T17:38:01.316Z</time>
</trkpt>
<trkpt lat="31.7390600" lon="35.0169000">
<ele>402.240021</ele>
<time>2021-10-27T17:38:01.316Z</time>
</trkpt>
<trkpt lat="31.7390700" lon="35.0167900">
<ele>400.389984</ele>
<time>2021-10-27T17:38:01.316Z</time>
</trkpt>
<trkpt lat="31.7390700" lon="35.0167300">
<ele>399.369995</ele>
<time>2021-10-27T17:38:01.316Z</time>
</trkpt>
<trkpt lat="31.7390300" lon="35.0167000">
<ele>398.610016</ele>
<time>2021-10-27T17:38:01.316Z</time>
</trkpt>
<trkpt lat="31.7389600" lon="35.0166900">
<ele>397.970001</ele>
<time>2021-10-27T17:38:01.316Z</time>
</trkpt>
<trkpt lat="31.7387500" lon="35.0166900">
<ele>395.459991</ele>
<time>2021-10-27T17:38:01.316Z</time>
</trkpt>
<trkpt lat="31.7386000" lon="35.0166700">
<ele>392.940002</ele>
<time>2021-10-27T17:38:01.316Z</time>
</trkpt>
<trkpt lat="31.7385500" lon="35.0166500">
<ele>391.910004</ele>
<time>2021-10-27T17:38:01.316Z</time>
</trkpt>
<trkpt lat="31.7385200" lon="35.0165900">
<ele>389.989990</ele>
<time>2021-10-27T17:38:01.317Z</time>
</trkpt>
<trkpt lat="31.7385200" lon="35.0165300">
<ele>388.410004</ele>
<time>2021-10-27T17:38:01.317Z</time>
</trkpt>
<trkpt lat="31.7385300" lon="35.0163200">
<ele>383.339996</ele>
<time>2021-10-27T17:38:01.317Z</time>
</trkpt>
<trkpt lat="31.7385400" lon="35.0162000">
<ele>380.899994</ele>
<time>2021-10-27T17:38:01.317Z</time>
</trkpt>
<trkpt lat="31.7385800" lon="35.0161200">
<ele>379.739990</ele>
<time>2021-10-27T17:38:01.317Z</time>
</trkpt>
<trkpt lat="31.7387100" lon="35.0159700">
<ele>376.829987</ele>
<time>2021-10-27T17:38:01.317Z</time>
</trkpt>
<trkpt lat="31.7389900" lon="35.0157900">
<ele>371.970001</ele>
<time>2021-10-27T17:38:01.317Z</time>
</trkpt>
<trkpt lat="31.7390200" lon="35.0157700">
<ele>371.099976</ele>
<time>2021-10-27T17:38:01.317Z</time>
</trkpt>
<trkpt lat="31.7393300" lon="35.0158200">
<ele>367.690002</ele>
<time>2021-10-27T17:38:01.317Z</time>
</trkpt>
<trkpt lat="31.7394600" lon="35.0158100">
<ele>366.230011</ele>
<time>2021-10-27T17:38:01.317Z</time>
</trkpt>
<trkpt lat="31.7396000" lon="35.0158000">
<ele>362.170013</ele>
<time>2021-10-27T17:38:01.317Z</time>
</trkpt>
<trkpt lat="31.7397800" lon="35.0157400">
<ele>357.699982</ele>
<time>2021-10-27T17:38:01.317Z</time>
</trkpt>
<trkpt lat="31.7403600" lon="35.0156600">
<ele>349.899994</ele>
<time>2021-10-27T17:38:01.317Z</time>
</trkpt>
<trkpt lat="31.7407000" lon="35.0155400">
<ele>349.259979</ele>
<time>2021-10-27T17:38:01.317Z</time>
</trkpt>
<trkpt lat="31.7410000" lon="35.0153300">
<ele>349.489990</ele>
<time>2021-10-27T17:38:01.317Z</time>
</trkpt>
<trkpt lat="31.7416600" lon="35.0151200">
<ele>340.970001</ele>
<time>2021-10-27T17:38:01.317Z</time>
</trkpt>
<trkpt lat="31.7417200" lon="35.0150500">
<ele>340.459991</ele>
<time>2021-10-27T17:38:01.317Z</time>
</trkpt>
<trkpt lat="31.7417500" lon="35.0149800">
<ele>340.609985</ele>
<time>2021-10-27T17:38:01.317Z</time>
</trkpt>
<trkpt lat="31.7418200" lon="35.0146800">
<ele>339.960022</ele>
<time>2021-10-27T17:38:01.317Z</time>
</trkpt>
<trkpt lat="31.7418800" lon="35.0144900">
<ele>340.209991</ele>
<time>2021-10-27T17:38:01.317Z</time>
</trkpt>
<trkpt lat="31.7419600" lon="35.0143400">
<ele>338.309998</ele>
<time>2021-10-27T17:38:01.317Z</time>
</trkpt>
<trkpt lat="31.7421300" lon="35.0141000">
<ele>334.109985</ele>
<time>2021-10-27T17:38:01.317Z</time>
</trkpt>
<trkpt lat="31.7424000" lon="35.0138100">
<ele>329.399994</ele>
<time>2021-10-27T17:38:01.318Z</time>
</trkpt>
<trkpt lat="31.7426300" lon="35.0133100">
<ele>329.990021</ele>
<time>2021-10-27T17:38:01.318Z</time>
</trkpt>
<trkpt lat="31.7426400" lon="35.0131900">
<ele>329.470001</ele>
<time>2021-10-27T17:38:01.318Z</time>
</trkpt>
<trkpt lat="31.7426400" lon="35.0130500">
<ele>329.000000</ele>
<time>2021-10-27T17:38:01.318Z</time>
</trkpt>
<trkpt lat="31.7426200" lon="35.0129600">
<ele>329.709991</ele>
<time>2021-10-27T17:38:01.318Z</time>
</trkpt>
<trkpt lat="31.7425000" lon="35.0127500">
<ele>333.700012</ele>
<time>2021-10-27T17:38:01.318Z</time>
</trkpt>
<trkpt lat="31.7424300" lon="35.0126300">
<ele>331.040009</ele>
<time>2021-10-27T17:38:01.318Z</time>
</trkpt>
<trkpt lat="31.7423000" lon="35.0122400">
<ele>329.210022</ele>
<time>2021-10-27T17:38:01.318Z</time>
</trkpt>
<trkpt lat="31.7422400" lon="35.0121100">
<ele>327.420013</ele>
<time>2021-10-27T17:38:01.318Z</time>
</trkpt>
<trkpt lat="31.7421700" lon="35.0121000">
<ele>326.339996</ele>
<time>2021-10-27T17:38:01.318Z</time>
</trkpt>
<trkpt lat="31.7421000" lon="35.0121000">
<ele>325.130005</ele>
<time>2021-10-27T17:38:01.318Z</time>
</trkpt>
<trkpt lat="31.7420200" lon="35.0121100">
<ele>323.760010</ele>
<time>2021-10-27T17:38:01.318Z</time>
</trkpt>
<trkpt lat="31.7419600" lon="35.0121800">
<ele>322.500031</ele>
<time>2021-10-27T17:38:01.318Z</time>
</trkpt>
<trkpt lat="31.7419300" lon="35.0123000">
<ele>321.929993</ele>
<time>2021-10-27T17:38:01.318Z</time>
</trkpt>
<trkpt lat="31.7419100" lon="35.0124600">
<ele>322.089996</ele>
<time>2021-10-27T17:38:01.318Z</time>
</trkpt>
<trkpt lat="31.7419300" lon="35.0127500">
<ele>322.690002</ele>
<time>2021-10-27T17:38:01.318Z</time>
</trkpt>
<trkpt lat="31.7419100" lon="35.0128800">
<ele>322.670013</ele>
<time>2021-10-27T17:38:01.318Z</time>
</trkpt>
<trkpt lat="31.7418800" lon="35.0130200">
<ele>322.679993</ele>
<time>2021-10-27T17:38:01.318Z</time>
</trkpt>
<trkpt lat="31.7416600" lon="35.0133500">
<ele>322.979980</ele>
<time>2021-10-27T17:38:01.318Z</time>
</trkpt>
<trkpt lat="31.7415600" lon="35.0133900">
<ele>321.340027</ele>
<time>2021-10-27T17:38:01.318Z</time>
</trkpt>
<trkpt lat="31.7415100" lon="35.0133500">
<ele>319.840027</ele>
<time>2021-10-27T17:38:01.318Z</time>
</trkpt>
<trkpt lat="31.7415300" lon="35.0132700">
<ele>319.249969</ele>
<time>2021-10-27T17:38:01.318Z</time>
</trkpt>
<trkpt lat="31.7416000" lon="35.0130500">
<ele>317.759979</ele>
<time>2021-10-27T17:38:01.318Z</time>
</trkpt>
<trkpt lat="31.7416300" lon="35.0129300">
<ele>317.440002</ele>
<time>2021-10-27T17:38:01.318Z</time>
</trkpt>
<trkpt lat="31.7415900" lon="35.0129000">
<ele>316.500000</ele>
<time>2021-10-27T17:38:01.318Z</time>
</trkpt>
<trkpt lat="31.7415600" lon="35.0129900">
<ele>316.609985</ele>
<time>2021-10-27T17:38:01.318Z</time>
</trkpt>
<trkpt lat="31.7414700" lon="35.0131300">
<ele>316.339996</ele>
<time>2021-10-27T17:38:01.319Z</time>
</trkpt>
<trkpt lat="31.7413800" lon="35.0131700">
<ele>315.080017</ele>
<time>2021-10-27T17:38:01.319Z</time>
</trkpt>
<trkpt lat="31.7413200" lon="35.0131700">
<ele>314.049988</ele>
<time>2021-10-27T17:38:01.319Z</time>
</trkpt>
<trkpt lat="31.7412900" lon="35.0131400">
<ele>313.100006</ele>
<time>2021-10-27T17:38:01.319Z</time>
</trkpt>
<trkpt lat="31.7412700" lon="35.0130100">
<ele>311.029999</ele>
<time>2021-10-27T17:38:01.319Z</time>
</trkpt>
<trkpt lat="31.7412400" lon="35.0129600">
<ele>309.910004</ele>
<time>2021-10-27T17:38:01.319Z</time>
</trkpt>
<trkpt lat="31.7409800" lon="35.0128400">
<ele>302.110016</ele>
<time>2021-10-27T17:38:01.319Z</time>
</trkpt>
<trkpt lat="31.7407300" lon="35.0126200">
<ele>296.769989</ele>
<time>2021-10-27T17:38:01.319Z</time>
</trkpt>
<trkpt lat="31.7407200" lon="35.0125500">
<ele>296.250000</ele>
<time>2021-10-27T17:38:01.319Z</time>
</trkpt>
<trkpt lat="31.7407100" lon="35.0124100">
<ele>295.559998</ele>
<time>2021-10-27T17:38:01.319Z</time>
</trkpt>
<trkpt lat="31.7407100" lon="35.0122900">
<ele>295.130005</ele>
<time>2021-10-27T17:38:01.319Z</time>
</trkpt>
<trkpt lat="31.7407200" lon="35.0116600">
<ele>295.510010</ele>
<time>2021-10-27T17:38:01.319Z</time>
</trkpt>
<trkpt lat="31.7407300" lon="35.0115300">
<ele>292.899994</ele>
<time>2021-10-27T17:38:01.319Z</time>
</trkpt>
<trkpt lat="31.7407800" lon="35.0113800">
<ele>289.040009</ele>
<time>2021-10-27T17:38:01.319Z</time>
</trkpt>
<trkpt lat="31.7408400" lon="35.0113000">
<ele>286.769989</ele>
<time>2021-10-27T17:38:01.319Z</time>
</trkpt>
<trkpt lat="31.7411700" lon="35.0109400">
<ele>284.040009</ele>
<time>2021-10-27T17:38:01.319Z</time>
</trkpt>
<trkpt lat="31.7414500" lon="35.0105800">
<ele>281.410004</ele>
<time>2021-10-27T17:38:01.319Z</time>
</trkpt>
<trkpt lat="31.7415000" lon="35.0104700">
<ele>280.519989</ele>
<time>2021-10-27T17:38:01.319Z</time>
</trkpt>
<trkpt lat="31.7415400" lon="35.0103000">
<ele>278.040009</ele>
<time>2021-10-27T17:38:01.319Z</time>
</trkpt>
<trkpt lat="31.7416200" lon="35.0101500">
<ele>276.350006</ele>
<time>2021-10-27T17:38:01.319Z</time>
</trkpt>
<trkpt lat="31.7418900" lon="35.0098900">
<ele>273.300018</ele>
<time>2021-10-27T17:38:01.319Z</time>
</trkpt>
<trkpt lat="31.7419200" lon="35.0098400">
<ele>272.660004</ele>
<time>2021-10-27T17:38:01.319Z</time>
</trkpt>
<trkpt lat="31.7419600" lon="35.0096700">
<ele>270.520020</ele>
<time>2021-10-27T17:38:01.319Z</time>
</trkpt>
<trkpt lat="31.7419700" lon="35.0094200">
<ele>267.179993</ele>
<time>2021-10-27T17:38:01.319Z</time>
</trkpt>
<trkpt lat="31.7421500" lon="35.0085800">
<ele>260.450012</ele>
<time>2021-10-27T17:38:01.319Z</time>
</trkpt>
<trkpt lat="31.7421700" lon="35.0084200">
<ele>260.489990</ele>
<time>2021-10-27T17:38:01.320Z</time>
</trkpt>
<trkpt lat="31.7419500" lon="35.0084100">
<ele>258.329987</ele>
<time>2021-10-27T17:38:01.320Z</time>
</trkpt>
<trkpt lat="31.7416300" lon="35.0082200">
<ele>262.380005</ele>
<time>2021-10-27T17:38:01.320Z</time>
</trkpt>
<trkpt lat="31.7410400" lon="35.0079100">
<ele>269.649994</ele>
<time>2021-10-27T17:38:01.320Z</time>
</trkpt>
<trkpt lat="31.7408300" lon="35.0077100">
<ele>272.269989</ele>
<time>2021-10-27T17:38:01.320Z</time>
</trkpt>
<trkpt lat="31.7406400" lon="35.0077100">
<ele>272.100006</ele>
<time>2021-10-27T17:38:01.320Z</time>
</trkpt>
<trkpt lat="31.7405900" lon="35.0079000">
<ele>275.480011</ele>
<time>2021-10-27T17:38:01.320Z</time>
</trkpt>
<trkpt lat="31.7404200" lon="35.0079400">
<ele>277.889984</ele>
<time>2021-10-27T17:38:01.320Z</time>
</trkpt>
<trkpt lat="31.7403400" lon="35.0079200">
<ele>278.380005</ele>
<time>2021-10-27T17:38:01.320Z</time>
</trkpt>
<trkpt lat="31.7402200" lon="35.0079100">
<ele>278.600006</ele>
<time>2021-10-27T17:38:01.320Z</time>
</trkpt>
<trkpt lat="31.7400700" lon="35.0078200">
<ele>276.750000</ele>
<time>2021-10-27T17:38:01.320Z</time>
</trkpt>
<trkpt lat="31.7397400" lon="35.0074500">
<ele>275.399994</ele>
<time>2021-10-27T17:38:01.320Z</time>
</trkpt>
<trkpt lat="31.7396900" lon="35.0073400">
<ele>273.489990</ele>
<time>2021-10-27T17:38:01.320Z</time>
</trkpt>
<trkpt lat="31.7396900" lon="35.0072400">
<ele>272.290009</ele>
<time>2021-10-27T17:38:01.320Z</time>
</trkpt>
<trkpt lat="31.7397000" lon="35.0071700">
<ele>271.070007</ele>
<time>2021-10-27T17:38:01.320Z</time>
</trkpt>
<trkpt lat="31.7399100" lon="35.0067900">
<ele>266.199982</ele>
<time>2021-10-27T17:38:01.320Z</time>
</trkpt>
<trkpt lat="31.7400100" lon="35.0064100">
<ele>266.029999</ele>
<time>2021-10-27T17:38:01.320Z</time>
</trkpt>
<trkpt lat="31.7400200" lon="35.0063400">
<ele>265.070007</ele>
<time>2021-10-27T17:38:01.320Z</time>
</trkpt>
<trkpt lat="31.7399200" lon="35.0063800">
<ele>262.970001</ele>
<time>2021-10-27T17:38:01.320Z</time>
</trkpt>
<trkpt lat="31.7396300" lon="35.0067900">
<ele>260.860016</ele>
<time>2021-10-27T17:38:01.320Z</time>
</trkpt>
<trkpt lat="31.7395000" lon="35.0068500">
<ele>259.429993</ele>
<time>2021-10-27T17:38:01.320Z</time>
</trkpt>
<trkpt lat="31.7393500" lon="35.0068700">
<ele>256.619995</ele>
<time>2021-10-27T17:38:01.320Z</time>
</trkpt>
<trkpt lat="31.7389100" lon="35.0068600">
<ele>256.089996</ele>
<time>2021-10-27T17:38:01.322Z</time>
</trkpt>
<trkpt lat="31.7388300" lon="35.0068800">
<ele>255.100006</ele>
<time>2021-10-27T17:38:01.322Z</time>
</trkpt>
<trkpt lat="31.7383600" lon="35.0070000">
<ele>252.229996</ele>
<time>2021-10-27T17:38:01.322Z</time>
</trkpt>
<trkpt lat="31.7382200" lon="35.0069900">
<ele>250.010010</ele>
<time>2021-10-27T17:38:01.322Z</time>
</trkpt>
<trkpt lat="31.7381700" lon="35.0069400">
<ele>248.470001</ele>
<time>2021-10-27T17:38:01.322Z</time>
</trkpt>
<trkpt lat="31.7381800" lon="35.0068100">
<ele>248.519989</ele>
<time>2021-10-27T17:38:01.322Z</time>
</trkpt>
<trkpt lat="31.7382600" lon="35.0064500">
<ele>250.610001</ele>
<time>2021-10-27T17:38:01.322Z</time>
</trkpt>
<trkpt lat="31.7382900" lon="35.0064000">
<ele>250.939987</ele>
<time>2021-10-27T17:38:01.322Z</time>
</trkpt>
<trkpt lat="31.7388700" lon="35.0060300">
<ele>239.860001</ele>
<time>2021-10-27T17:38:01.322Z</time>
</trkpt>
<trkpt lat="31.7390100" lon="35.0058600">
<ele>241.900009</ele>
<time>2021-10-27T17:38:01.322Z</time>
</trkpt>
<trkpt lat="31.7393500" lon="35.0049600">
<ele>241.020004</ele>
<time>2021-10-27T17:38:01.322Z</time>
</trkpt>
<trkpt lat="31.7393700" lon="35.0042400">
<ele>241.000000</ele>
<time>2021-10-27T17:38:01.322Z</time>
</trkpt>
<trkpt lat="31.7393400" lon="35.0040500">
<ele>241.770004</ele>
<time>2021-10-27T17:38:01.322Z</time>
</trkpt>
<trkpt lat="31.7391800" lon="35.0039800">
<ele>243.839996</ele>
<time>2021-10-27T17:38:01.322Z</time>
</trkpt>
<trkpt lat="31.7389800" lon="35.0039600">
<ele>244.170013</ele>
<time>2021-10-27T17:38:01.322Z</time>
</trkpt>
<trkpt lat="31.7386000" lon="35.0039700">
<ele>243.520004</ele>
<time>2021-10-27T17:38:01.322Z</time>
</trkpt>
<trkpt lat="31.7385700" lon="35.0040500">
<ele>243.949997</ele>
<time>2021-10-27T17:38:01.322Z</time>
</trkpt>
<trkpt lat="31.7384100" lon="35.0042000">
<ele>244.599991</ele>
<time>2021-10-27T17:38:01.322Z</time>
</trkpt>
<trkpt lat="31.7383800" lon="35.0044100">
<ele>246.650009</ele>
<time>2021-10-27T17:38:01.322Z</time>
</trkpt>
<trkpt lat="31.7382400" lon="35.0047100">
<ele>247.550003</ele>
<time>2021-10-27T17:38:01.323Z</time>
</trkpt>
<trkpt lat="31.7370500" lon="35.0054500">
<ele>242.480011</ele>
<time>2021-10-27T17:38:01.323Z</time>
</trkpt>
<trkpt lat="31.7365900" lon="35.0058700">
<ele>244.879990</ele>
<time>2021-10-27T17:38:01.323Z</time>
</trkpt>
<trkpt lat="31.7361200" lon="35.0059300">
<ele>250.639999</ele>
<time>2021-10-27T17:38:01.323Z</time>
</trkpt>
<trkpt lat="31.7355800" lon="35.0061200">
<ele>251.330002</ele>
<time>2021-10-27T17:38:01.323Z</time>
</trkpt>
<trkpt lat="31.7350700" lon="35.0061300">
<ele>250.420013</ele>
<time>2021-10-27T17:38:01.323Z</time>
</trkpt>
<trkpt lat="31.7334100" lon="35.0060300">
<ele>255.620010</ele>
<time>2021-10-27T17:38:01.323Z</time>
</trkpt>
<trkpt lat="31.7330400" lon="35.0059400">
<ele>254.319992</ele>
<time>2021-10-27T17:38:01.323Z</time>
</trkpt>
<trkpt lat="31.7318800" lon="35.0058800">
<ele>258.859985</ele>
<time>2021-10-27T17:38:01.323Z</time>
</trkpt>
<trkpt lat="31.7318000" lon="35.0058800">
<ele>256.419983</ele>
<time>2021-10-27T17:38:01.323Z</time>
</trkpt>
<trkpt lat="31.7318400" lon="35.0056000">
<ele>255.979996</ele>
<time>2021-10-27T17:38:01.323Z</time>
</trkpt>
<trkpt lat="31.7318400" lon="35.0056000">
<ele>255.979996</ele>
<time>2021-10-27T17:38:01.323Z</time>
</trkpt>
<trkpt lat="31.7318300" lon="35.0056000">
<ele>255.740005</ele>
<time>2021-10-27T17:38:01.323Z</time>
</trkpt>
<trkpt lat="31.7318400" lon="35.0055200">
<ele>255.920013</ele>
<time>2021-10-27T17:38:01.323Z</time>
</trkpt>
<trkpt lat="31.7318500" lon="35.0055200">
<ele>256.100006</ele>
<time>2021-10-27T17:38:01.323Z</time>
</trkpt>
<trkpt lat="31.7318900" lon="35.0055000">
<ele>256.779999</ele>
<time>2021-10-27T17:38:01.323Z</time>
</trkpt>
<trkpt lat="31.7319200" lon="35.0054700">
<ele>257.100006</ele>
<time>2021-10-27T17:38:01.323Z</time>
</trkpt>
<trkpt lat="31.7319400" lon="35.0054300">
<ele>257.070007</ele>
<time>2021-10-27T17:38:01.323Z</time>
</trkpt>
<trkpt lat="31.7319500" lon="35.0053900">
<ele>256.860016</ele>
<time>2021-10-27T17:38:01.323Z</time>
</trkpt>
<trkpt lat="31.7319500" lon="35.0053500">
<ele>256.570007</ele>
<time>2021-10-27T17:38:01.323Z</time>
</trkpt>
<trkpt lat="31.7319400" lon="35.0053100">
<ele>256.260010</ele>
<time>2021-10-27T17:38:01.323Z</time>
</trkpt>
<trkpt lat="31.7319100" lon="35.0052700">
<ele>256.369995</ele>
<time>2021-10-27T17:38:01.323Z</time>
</trkpt>
<trkpt lat="31.7318800" lon="35.0052400">
<ele>256.630005</ele>
<time>2021-10-27T17:38:01.323Z</time>
</trkpt>
<trkpt lat="31.7318500" lon="35.0052300">
<ele>256.899994</ele>
<time>2021-10-27T17:38:01.323Z</time>
</trkpt>
<trkpt lat="31.7318100" lon="35.0052200">
<ele>257.250000</ele>
<time>2021-10-27T17:38:01.323Z</time>
</trkpt>
<trkpt lat="31.7318200" lon="35.0047300">
<ele>260.440002</ele>
<time>2021-10-27T17:38:01.323Z</time>
</trkpt>
<trkpt lat="31.7317800" lon="35.0044900">
<ele>263.410004</ele>
<time>2021-10-27T17:38:01.323Z</time>
</trkpt>
<trkpt lat="31.7318000" lon="35.0045000">
<ele>263.299988</ele>
<time>2021-10-27T17:38:01.323Z</time>
</trkpt>
</trkseg>
</trk>
</gpx>
